GFSNW_sfc_temp_036.txt.gz
Temp
56 55 55 55 55 55 51 47 44 53 53 46 46 38 41 44 47 50 48 48 45 43 42 41 42 42 45 51 51 45 46 43 33 37 43 46 45 44 45 39 31 35 37 44
55 55 55 55 55 54 48 44 46 54 51 42 43 45 45 46 47 47 47 45 47 47 43 40 43 43 48 50 50 47 48 40 30 31 39 43 40 44 43 40 39 32 37 44
55 55 54 54 54 54 50 45 42 49 50 47 46 44 43 44 48 47 48 47 48 46 43 46 42 43 46 49 49 49 50 41 36 35 35 41 34 40 41 41 33 37 40 44
55 54 54 54 54 53 50 44 37 41 40 43 43 43 43 42 43 48 49 46 47 46 41 42 42 44 45 47 48 48 48 34 35 39 40 39 39 39 39 34 41 36 43 42
54 54 53 54 53 52 49 41 40 45 42 40 41 42 43 42 44 45 45 44 47 48 44 46 42 45 45 45 47 46 45 34 35 33 38 38 35 40 41 40 41 41 43 42
53 53 53 53 53 51 45 45 47 42 41 40 42 43 42 43 45 48 48 49 48 46 48 51 52 53 53 51 47 44 43 35 33 32 37 37 33 38 40 42 43 43 38 47
54 53 52 53 53 49 45 43 41 39 38 41 40 39 40 41 43 42 48 50 49 50 54 54 54 52 50 50 48 50 42 38 37 32 35 27 42 46 46 44 46 47 48 50
53 53 52 51 53 51 46 44 41 39 36 39 39 39 38 42 45 45 46 49 51 56 51 46 42 42 43 43 45 47 49 44 35 32 33 40 45 42 42 42 44 49 47 51
52 53 53 52 52 50 47 44 43 40 34 39 39 39 41 38 42 45 46 50 53 52 49 43 36 33 39 36 39 46 46 48 40 34 27 29 44 49 51 51 41 51 51 50
52 52 52 52 51 50 48 45 45 40 34 40 39 39 39 42 40 40 43 45 47 49 45 40 37 36 41 35 35 35 38 37 34 36 32 40 50 50 52 37 43 52 51 52
52 50 52 51 50 50 48 46 46 43 37 40 40 42 40 41 41 36 39 42 42 41 39 39 39 40 41 38 43 40 39 36 34 37 32 29 51 48 44 51 52 51 49 51
51 51 51 52 51 50 49 43 46 46 38 39 44 45 47 46 45 39 39 35 39 45 42 43 44 40 41 42 35 44 37 44 41 42 42 52 52 52 54 54 52 51 51 51
52 52 51 51 52 51 50 43 44 42 36 36 36 37 45 47 46 49 36 40 42 39 39 41 43 40 44 38 40 42 45 48 43 43 50 50 52 54 51 52 52 52 52 51
52 50 50 51 52 52 50 43 45 43 37 29 35 44 41 47 46 45 45 44 44 38 35 38 41 41 45 44 44 44 46 46 45 45 49 50 52 54 54 53 52 52 52 50
51 49 50 51 50 51 49 45 44 46 37 31 34 42 44 46 45 42 42 41 39 36 31 32 37 45 43 44 44 42 46 46 43 44 52 53 52 54 51 49 48 49 49 49
50 49 50 49 50 50 44 37 41 43 42 32 27 40 38 41 41 41 40 40 39 37 34 33 36 46 47 40 41 49 49 49 50 50 51 51 52 50 49 46 47 49 48 50
50 50 50 50 50 45 40 38 43 44 44 33 28 29 40 40 39 39 38 40 38 37 35 34 36 42 45 42 40 48 49 50 48 49 49 47 48 48 46 46 47 47 47 48
50 50 50 49 49 46 41 44 46 45 38 34 26 28 32 41 35 33 39 34 37 35 35 40 38 40 42 39 45 46 47 47 46 45 45 44 45 44 44 44 45 44 45 47
50 49 48 44 41 38 40 46 46 42 37 29 30 27 28 36 37 39 37 39 31 37 34 38 40 39 37 43 44 45 45 45 44 41 41 42 41 41 41 41 42 43 44 43
47 44 40 36 40 46 45 40 35 34 34 33 29 34 30 35 36 35 34 38 35 31 36 41 37 37 40 40 42 45 42 41 40 39 37 35 35 38 39 39 41 42 43 44
41 36 35 41 44 39 37 32 30 32 29 32 32 32 31 38 33 36 37 34 34 32 34 37 35 36 37 38 38 39 39 39 39 39 39 39 39 37 37 39 41 41 43 42
41 40 41 40 36 33 30 30 33 31 30 35 34 36 36 37 42 38 39 34 35 32 40 36 33 36 33 36 36 36 37 38 38 40 39 38 38 38 37 38 39 40 42 43
41 37 33 32 32 28 27 26 30 30 33 34 33 31 36 38 40 37 36 32 33 36 33 34 36 33 34 35 35 35 37 37 38 38 38 38 36 37 36 36 37 37 38 40
32 27 22 27 27 30 30 31 31 34 33 34 33 32 34 37 34 36 32 35 35 31 30 32 34 33 34 35 35 36 34 35 36 36 36 36 35 36 38 37 37 38 38 38
28 27 24 26 32 31 32 32 32 35 36 34 33 32 35 33 32 35 34 32 31 33 34 36 34 33 34 34 34 34 34 35 35 35 35 35 35 35 36 36 37 38 38 36
28 27 25 29 27 29 30 30 30 35 35 35 33 31 32 33 33 32 32 31 29 35 34 34 35 33 33 34 34 34 34 34 34 34 34 34 33 33 34 36 35 35 36 34
23 24 28 28 26 27 30 33 34 37 33 30 30 29 30 32 31 30 34 33 36 35 34 33 35 33 33 34 33 33 33 33 32 32 32 31 32 34 33 31 32 32 33 33

GFSNW_sfc_temp_039.txt.gz
Temp
55 55 55 55 55 55 55 52 46 57 59 49 53 44 47 46 51 54 51 51 49 48 48 46 47 46 50 55 55 49 50 45 35 39 47 49 49 47 48 39 35 40 38 42
55 55 55 55 55 54 49 49 52 59 57 45 47 49 49 51 50 51 51 49 50 51 48 43 47 48 52 54 53 50 52 42 31 34 42 46 42 47 47 46 42 35 37 42
55 54 54 54 54 54 52 50 42 56 58 56 52 49 48 47 51 51 52 50 52 50 47 50 46 46 49 52 53 49 53 45 38 37 37 44 37 43 46 42 35 40 43 47
55 54 54 54 54 54 53 51 44 45 44 50 50 49 48 46 46 51 52 49 50 49 45 46 46 49 47 50 49 52 51 36 37 43 44 42 41 42 43 37 41 39 47 48
54 54 53 53 53 54 54 42 38 46 47 46 47 44 47 46 48 48 48 46 50 51 48 50 46 49 49 47 50 49 49 35 38 34 42 42 38 43 44 43 43 44 46 46
54 53 53 53 53 54 49 48 50 42 45 46 46 48 47 47 48 51 52 51 51 48 51 55 56 58 57 54 49 47 46 37 34 34 41 39 34 41 43 45 47 47 41 50
53 53 53 52 53 52 51 47 43 42 42 45 44 44 45 45 47 45 51 54 51 52 59 59 58 56 55 54 53 54 46 40 39 33 37 27 44 50 49 46 48 50 51 54
53 53 53 53 53 52 51 48 44 41 38 44 45 44 44 46 50 47 49 53 55 60 55 49 44 43 44 47 50 51 53 46 37 33 35 43 47 47 45 44 45 52 50 53
53 53 52 52 51 51 52 49 47 42 36 41 42 41 45 41 45 48 50 54 57 56 52 46 37 35 42 37 42 50 50 50 42 37 30 31 45 51 54 53 42 53 54 53
53 52 52 52 51 51 51 49 48 43 36 45 43 41 40 46 42 40 47 46 49 53 46 40 37 38 45 37 37 37 39 41 35 36 33 41 53 53 55 39 42 54 54 54
52 52 52 52 51 51 48 49 49 45 40 43 45 44 41 43 43 38 40 44 45 43 41 39 42 41 45 43 46 42 39 36 36 38 33 30 54 51 45 52 56 55 53 53
53 52 52 51 52 51 48 42 49 48 39 42 49 48 49 46 46 40 42 37 38 40 41 46 47 44 48 45 39 50 40 46 43 45 44 54 56 56 57 57 55 54 54 52
52 52 51 51 52 52 50 43 43 42 37 39 41 41 47 49 47 50 37 42 44 37 35 36 43 41 50 42 44 46 48 54 45 46 52 53 55 57 56 55 55 55 55 54
52 52 51 51 52 51 50 44 45 44 40 32 39 47 43 49 49 47 47 46 46 42 35 32 38 39 52 47 49 48 52 50 46 47 52 52 55 58 57 55 55 54 54 54
51 50 51 51 51 51 50 49 48 47 39 32 35 43 45 48 47 45 45 43 41 38 35 32 33 39 46 49 49 47 51 50 46 45 56 55 57 58 57 54 53 52 51 52
51 51 51 50 50 50 47 39 45 46 45 34 29 44 42 44 45 43 42 42 41 38 36 37 40 40 40 41 43 54 57 58 58 55 57 57 57 56 54 52 52 52 51 51
51 51 51 50 50 48 41 39 44 47 46 34 30 32 43 43 41 41 39 42 38 38 35 35 38 38 34 40 43 53 56 57 55 55 54 51 52 51 50 50 50 50 50 51
51 51 50 49 49 47 43 47 47 47 38 35 28 30 34 43 38 36 41 36 37 35 36 39 37 40 36 36 50 51 53 53 52 51 51 49 49 49 49 48 48 47 48 50
50 49 48 47 45 42 42 46 47 42 37 31 31 28 30 37 36 39 37 39 29 40 32 35 40 36 32 41 47 48 49 49 50 47 47 47 46 45 45 45 45 45 46 48
48 48 44 38 42 46 46 39 36 34 35 34 29 35 31 35 36 34 35 36 32 29 35 41 35 35 45 42 46 51 48 46 46 44 41 38 37 41 43 42 44 44 44 45
46 40 38 45 46 41 38 33 32 34 30 33 33 33 31 39 32 35 35 34 34 30 35 34 34 36 40 41 41 43 44 45 44 45 44 44 42 40 39 38 40 43 44 44
43 41 44 43 39 34 31 31 33 32 31 35 34 36 37 37 38 35 36 33 34 32 37 34 33 37 37 40 39 39 42 42 42 44 42 40 39 38 37 38 38 39 40 43
45 39 34 35 34 31 29 26 31 30 35 37 34 30 36 37 38 35 34 32 34 37 34 34 38 36 37 38 39 38 40 41 42 41 41 41 40 39 37 36 38 37 36 38
35 31 28 31 30 32 33 33 33 37 35 35 35 32 33 37 33 35 32 35 35 32 31 34 38 37 38 39 39 39 38 39 39 39 39 39 38 38 40 39 40 39 39 39
32 31 31 31 37 34 35 34 33 37 38 36 34 33 33 33 32 35 34 32 31 34 33 38 38 37 37 37 38 39 38 38 38 38 38 38 37 38 38 38 38 38 38 37
32 30 30 34 31 33 33 33 33 38 37 37 34 30 31 32 32 32 32 31 32 35 36 36 38 36 35 37 37 37 37 38 37 37 36 37 36 35 36 38 37 36 36 35
27 31 34 33 32 32 35 38 38 40 35 31 31 28 30 32 31 31 35 33 35 35 37 37 38 35 34 37 36 36 36 36 35 34 34 34 35 36 35 33 34 33 34 34

GFSNW_sfc_temp_042.txt.gz
Temp
55 55 55 55 55 55 54 48 42 54 56 44 47 40 47 49 51 53 52 50 48 46 46 44 44 44 47 53 52 46 47 39 32 37 45 49 44 41 40 30 28 29 28 32
55 55 55 55 55 54 48 44 48 55 54 40 44 48 49 51 50 51 50 49 50 50 46 40 46 45 50 52 50 44 47 35 28 31 38 43 40 44 43 41 37 32 29 31
55 54 54 54 54 55 49 46 39 49 51 51 48 46 47 46 50 51 52 50 51 47 45 48 43 44 48 50 51 50 50 41 32 26 31 38 33 40 43 37 28 34 34 36
55 54 54 54 54 54 49 48 41 44 38 44 44 48 48 46 45 50 52 48 48 47 42 44 43 46 44 48 48 47 45 31 32 38 42 38 37 39 41 33 36 30 38 40
54 54 53 53 53 54 49 41 38 43 42 46 44 43 46 46 48 48 47 45 49 49 45 46 43 46 44 42 45 45 45 32 34 29 41 39 33 39 40 41 41 40 41 40
54 53 53 53 53 53 46 46 48 42 42 43 42 42 44 45 48 50 51 49 48 46 48 51 51 51 51 48 44 42 41 32 28 26 38 35 28 36 39 41 42 42 35 43
54 53 53 53 53 52 48 45 43 39 38 42 41 44 44 44 46 43 48 51 49 49 54 53 51 48 49 49 46 48 40 35 32 24 29 18 39 45 46 43 45 45 47 48
54 53 53 53 52 52 48 47 42 39 35 39 41 41 43 44 47 45 48 51 51 54 50 45 39 39 40 46 46 45 47 40 34 30 25 35 40 42 42 41 41 49 46 48
53 53 52 53 52 52 49 47 46 41 35 36 41 38 42 37 38 43 47 52 53 50 45 41 35 32 37 35 39 45 48 46 37 35 26 23 40 46 50 48 37 49 50 48
53 53 52 52 52 51 48 47 47 41 35 42 41 37 36 42 39 37 43 42 46 48 40 38 35 34 40 34 34 34 35 35 30 33 30 34 46 49 50 34 37 48 50 50
53 53 53 52 52 52 47 45 48 41 37 40 45 45 38 39 40 34 39 39 42 40 35 35 34 34 37 35 39 37 35 31 33 35 31 25 48 46 39 45 48 48 48 48
52 52 52 52 52 52 49 41 46 46 38 39 46 46 47 45 43 38 39 36 38 36 36 37 38 36 39 38 31 42 34 39 36 37 36 47 49 46 49 50 49 48 47 48
52 52 51 52 52 52 50 43 44 41 37 38 38 40 46 49 46 48 35 40 42 35 35 33 36 35 40 33 36 40 41 45 39 41 44 46 49 50 50 47 48 49 50 48
52 52 52 52 52 51 50 44 45 42 38 30 36 47 43 48 45 45 45 43 44 39 36 32 32 35 43 39 41 41 44 44 41 40 44 43 48 50 50 50 49 49 49 48
51 51 51 51 51 51 48 45 45 45 37 30 33 41 44 47 45 44 44 42 39 35 32 30 30 36 36 40 41 38 44 41 37 37 47 46 48 51 52 49 48 47 45 44
51 51 51 51 50 50 44 37 43 45 44 33 28 40 40 42 43 42 41 40 38 35 32 31 34 39 35 30 33 46 50 51 51 46 49 48 48 49 48 48 47 46 44 45
51 51 50 50 50 45 39 36 41 46 44 33 28 30 40 42 40 39 38 39 38 36 33 31 30 32 35 33 31 44 52 53 49 49 48 45 45 43 45 45 45 46 44 45
51 50 49 49 49 46 41 43 46 46 38 34 27 28 32 40 35 34 39 34 35 33 31 32 30 33 33 29 38 42 48 49 48 45 45 43 44 44 43 43 43 41 41 43
49 48 48 45 42 39 39 46 46 42 37 30 30 27 28 37 35 37 34 35 28 35 29 30 33 31 27 34 39 42 43 44 44 43 43 42 41 40 40 39 39 38 39 40
49 45 41 36 39 46 45 39 35 34 34 34 28 34 30 36 35 34 32 33 30 24 31 36 30 32 40 41 42 42 43 42 42 38 34 32 31 36 37 36 38 38 39 40
42 36 36 40 47 39 37 32 31 33 30 32 33 33 31 39 31 33 35 32 31 26 32 31 32 34 37 39 39 41 41 42 40 40 40 39 38 36 35 36 39 40 41 38
40 39 42 41 38 34 30 30 33 32 31 35 33 34 35 36 38 33 35 32 32 29 36 33 32 33 34 37 37 38 40 40 40 41 39 38 38 38 37 37 37 38 38 39
41 36 31 34 30 22 24 23 26 28 33 34 33 31 35 36 37 34 33 31 32 36 32 31 32 33 35 36 37 37 38 39 40 39 39 39 37 37 36 35 37 38 37 37
31 25 20 24 22 26 27 27 28 33 32 33 33 32 32 36 33 34 31 35 34 30 29 30 30 33 34 36 38 38 37 37 37 37 37 36 35 35 36 35 35 36 36 37
26 26 20 21 30 28 28 27 28 32 34 33 32 32 33 31 31 34 32 31 28 30 30 32 31 32 35 36 37 35 34 35 34 35 35 35 34 34 34 34 34 34 34 34
26 24 22 29 24 25 26 25 25 32 33 32 33 30 29 30 31 30 31 30 29 31 32 34 33 32 34 35 36 35 35 35 36 35 35 35 32 31 32 34 33 32 33 32
21 22 30 27 25 24 27 31 32 35 29 28 29 26 26 29 28 29 32 30 32 33 33 32 32 32 33 35 33 33 33 34 33 33 33 31 32 32 32 30 30 28 30 30

GFSNW_sfc_temp_045.txt.gz
Temp
55 55 55 55 55 55 47 38 36 48 49 38 41 31 41 47 47 49 47 45 44 40 41 40 40 39 44 52 49 43 46 38 31 35 44 45 43 38 38 27 27 27 24 30
55 55 55 55 55 55 44 34 38 48 46 37 35 42 45 47 46 46 46 44 46 45 41 37 40 41 48 50 46 44 45 33 28 30 37 41 36 39 41 38 34 27 25 29
55 54 54 54 55 55 44 36 33 40 41 42 43 39 42 42 47 46 48 46 46 43 40 43 39 39 45 47 47 50 48 36 29 25 30 35 31 38 41 37 26 31 31 36
55 54 54 54 54 54 42 37 37 37 34 36 39 41 46 42 42 46 47 43 44 41 38 39 39 40 41 45 48 45 42 28 29 36 39 37 36 37 39 32 37 31 38 37
54 54 53 53 53 53 39 32 31 36 36 38 38 40 41 41 45 44 45 41 45 43 40 41 38 41 39 38 40 40 40 26 29 26 37 36 32 37 38 39 40 37 37 36
54 53 53 53 53 49 36 36 38 36 37 36 36 40 40 43 44 47 47 45 43 42 44 45 45 46 46 44 40 38 37 28 23 22 35 32 27 34 37 38 41 41 34 43
54 53 53 53 53 50 39 37 35 30 30 37 37 40 42 40 43 41 44 47 47 49 51 49 47 47 46 45 42 44 36 33 27 22 27 18 36 42 42 41 42 43 43 44
53 53 53 52 52 53 40 39 35 30 26 34 38 37 37 39 40 40 43 46 46 47 46 40 37 35 38 42 44 43 44 39 28 24 27 32 37 40 41 38 38 45 44 45
53 53 52 52 52 52 41 39 39 33 28 29 39 36 37 33 32 39 44 48 47 47 41 38 33 31 34 31 36 42 45 43 32 31 25 22 38 42 46 46 34 46 48 46
53 53 53 52 52 52 43 44 44 36 29 35 37 33 32 37 33 35 40 40 40 44 36 34 32 32 38 29 30 31 35 35 28 30 28 32 43 45 47 33 36 46 47 47
52 53 52 52 52 51 44 42 45 41 32 33 39 40 36 36 35 30 35 38 38 38 34 33 32 30 34 32 35 33 31 28 27 29 29 23 46 44 38 44 44 44 46 45
52 52 52 52 52 52 49 41 46 46 37 34 40 42 43 42 40 34 35 34 37 36 34 35 36 33 33 32 28 35 31 36 32 33 33 43 45 45 46 48 47 44 45 45
52 52 53 52 52 52 48 43 43 40 36 32 33 35 42 46 45 46 32 35 38 35 35 33 34 34 36 30 32 35 38 42 37 38 40 43 46 46 47 46 45 48 47 47
52 52 52 52 51 51 50 41 41 40 36 28 32 45 40 46 45 44 44 41 41 38 35 31 31 31 38 34 36 35 40 42 38 37 41 43 45 47 47 47 47 46 46 46
51 51 51 51 51 51 44 40 40 43 36 29 31 38 41 44 42 41 42 40 37 34 30 27 28 34 33 33 34 35 41 40 37 35 43 43 44 48 47 46 45 45 45 43
51 51 51 50 50 49 40 34 39 42 40 31 25 38 36 39 41 40 39 39 37 34 31 29 32 36 31 26 28 40 47 46 48 44 46 45 43 45 46 45 44 45 44 42
51 51 50 49 50 40 35 34 40 45 41 32 24 28 38 40 39 36 35 37 35 33 30 29 29 30 34 30 26 39 45 44 43 47 46 43 43 41 42 43 43 45 42 42
50 50 49 49 49 46 38 39 46 44 37 31 20 24 30 39 34 31 35 31 31 30 29 29 28 29 28 23 32 39 43 43 43 42 43 43 42 41 41 41 41 39 39 40
49 49 49 42 37 34 38 45 44 42 37 29 27 24 23 38 35 36 33 33 26 31 26 28 30 27 25 31 33 36 43 38 39 42 42 40 39 39 38 38 37 36 36 38
49 41 36 31 35 46 45 39 36 33 34 33 27 33 28 35 35 34 30 31 25 19 27 31 29 26 37 37 38 43 39 39 39 38 34 32 31 35 35 34 36 36 36 37
38 32 31 36 46 37 35 31 28 32 26 31 31 32 30 37 30 31 34 28 29 18 28 28 28 32 34 37 37 39 40 40 40 38 38 37 38 35 35 37 38 39 39 37
37 35 39 36 36 32 22 18 29 27 26 33 32 32 34 35 38 33 33 31 32 24 33 30 30 34 34 33 36 35 38 39 40 40 37 36 38 38 37 37 37 37 38 38
37 32 25 26 23 20 15 13 19 19 26 27 28 28 33 36 36 34 33 30 31 35 31 31 32 33 34 33 34 34 36 38 37 38 38 37 35 36 35 33 34 34 35 35
25 17 18 17 14 16 19 20 18 27 25 26 29 27 29 34 31 34 30 35 34 28 28 29 32 31 33 35 35 37 34 35 34 34 37 36 35 34 34 33 32 32 31 32
20 20 17 15 24 18 19 27 22 25 27 26 26 30 32 29 29 32 32 30 28 29 27 32 33 33 32 35 36 35 35 35 33 34 33 34 33 32 32 32 31 31 30 30
19 17 18 23 17 15 18 15 18 25 29 25 28 26 28 28 29 28 29 29 24 29 32 33 33 32 33 32 35 35 34 33 34 34 35 34 32 30 31 31 30 29 29 29
15 17 25 20 15 18 19 27 27 31 25 17 25 23 20 25 25 25 31 27 30 34 34 34 33 31 32 33 33 32 33 33 32 32 32 31 31 31 30 28 28 27 29 28

GFSNW_sfc_temp_051.txt.gz
Temp
55 55 55 55 55 55 46 36 34 48 47 39 40 27 37 46 43 45 43 42 40 36 38 35 34 36 39 46 45 38 40 35 30 34 41 45 41 38 35 30 25 23 22 27
55 54 54 55 55 55 40 34 37 48 48 36 31 38 41 43 43 42 42 41 43 41 37 34 35 37 44 47 44 40 42 33 28 30 35 40 37 40 39 38 31 25 22 30
54 54 54 54 55 54 41 35 30 39 43 43 36 35 37 38 44 43 44 42 43 40 37 39 36 37 42 45 47 49 48 34 30 26 28 32 34 37 39 36 29 31 30 34
54 54 54 54 54 52 40 32 30 32 33 36 36 37 38 38 39 43 44 40 40 38 33 35 34 36 38 42 47 41 40 28 29 33 36 34 32 33 38 34 36 32 38 36
54 53 53 53 53 50 35 30 30 32 30 33 36 38 36 37 38 43 40 38 40 39 35 36 35 37 36 36 37 36 37 25 28 25 33 33 32 34 35 38 38 38 39 36
53 53 53 53 53 46 33 33 34 32 32 30 33 31 36 38 40 45 45 39 38 38 40 41 42 42 42 40 38 35 34 27 22 19 30 31 27 33 34 35 38 39 34 42
53 53 53 53 53 46 36 33 32 30 28 30 31 34 37 38 39 37 42 42 41 42 45 43 42 41 40 40 37 39 32 28 24 18 26 15 33 38 39 37 41 40 40 41
53 53 53 52 53 51 38 35 32 29 25 28 31 32 33 35 37 37 41 45 46 45 44 38 34 32 35 36 38 37 38 32 24 20 18 28 35 35 36 34 36 41 42 44
52 52 52 52 52 51 39 36 35 31 28 27 33 30 31 26 28 34 41 47 46 46 39 36 27 25 29 28 33 42 42 39 30 26 24 19 34 39 42 40 30 41 41 42
52 52 52 52 52 51 41 38 38 33 28 30 31 28 28 32 28 28 36 36 38 42 37 33 29 25 33 27 28 29 34 34 28 31 27 29 38 41 43 28 33 42 42 42
52 52 52 52 52 52 42 38 44 35 31 30 35 36 30 31 30 27 33 35 36 36 33 31 31 28 30 27 30 30 30 27 27 29 28 23 41 39 35 41 42 43 43 41
52 52 52 52 52 51 45 39 44 45 32 32 36 38 38 37 37 32 32 32 34 34 33 34 34 34 29 28 26 30 29 33 30 31 32 42 42 43 45 44 43 43 43 42
52 52 52 52 52 51 46 37 37 40 35 30 32 33 39 43 41 42 30 33 36 35 35 32 33 31 37 30 29 29 33 36 34 34 38 39 43 45 44 44 44 44 46 44
52 52 51 51 51 50 46 37 39 40 35 24 30 41 36 42 43 42 41 38 38 36 33 31 29 29 36 34 33 34 38 39 36 34 39 40 43 43 45 46 45 44 43 44
51 51 51 50 50 48 40 37 37 38 31 25 29 35 39 41 41 40 40 38 35 33 30 28 27 30 30 30 31 30 37 36 32 33 38 34 39 43 44 44 44 44 44 42
50 50 50 50 49 46 38 32 37 39 36 25 22 33 34 37 39 38 38 37 36 34 31 29 29 33 30 23 24 34 36 38 38 34 38 41 43 43 42 42 43 43 43 43
50 50 50 49 47 37 33 32 38 43 37 26 20 22 34 37 37 35 34 36 33 31 29 28 27 28 28 26 24 34 35 36 37 40 38 37 42 39 42 42 41 44 41 40
50 50 49 49 48 44 35 37 44 43 32 26 15 21 26 36 30 30 35 31 31 32 30 29 27 29 28 24 30 34 36 35 35 36 37 36 38 41 40 40 39 38 37 37
50 50 48 39 35 31 33 45 45 40 36 19 18 19 19 35 31 34 32 32 26 30 27 27 29 27 23 32 32 32 33 34 35 37 35 37 37 40 39 39 37 35 35 36
48 40 35 29 33 44 43 37 36 34 34 26 19 27 23 29 31 29 30 30 27 19 28 30 27 26 34 37 36 35 34 37 36 32 33 34 33 36 37 36 37 36 35 35
36 32 29 33 43 36 36 32 27 27 22 32 29 29 26 33 29 30 33 28 27 21 25 26 24 28 34 35 34 36 36 36 39 38 36 35 36 35 36 36 37 37 36 35
37 35 36 34 29 24 19 14 23 22 20 28 30 30 29 29 35 32 33 28 30 23 30 27 26 31 35 34 34 35 34 35 37 37 35 34 35 37 38 37 36 36 37 37
34 32 23 26 20 19 14 11 15 16 21 22 24 21 26 32 33 32 32 28 28 33 28 28 30 34 35 34 33 34 35 35 36 35 35 35 34 34 34 33 32 33 32 32
26 21 19 18 12 14 16 18 17 23 27 22 27 23 27 27 26 31 27 33 33 26 22 24 26 33 34 34 35 33 33 34 33 32 32 33 32 32 33 32 32 32 30 30
23 23 18 13 20 20 21 23 24 22 25 25 25 23 29 29 27 28 29 28 16 24 23 27 30 32 34 34 34 32 31 32 32 33 32 31 30 30 31 31 30 30 30 29
21 17 17 21 16 11 23 23 19 23 26 24 25 18 23 27 26 26 23 14 13 19 22 26 30 32 33 32 34 33 32 32 33 32 32 32 31 29 28 30 30 29 30 29
18 17 24 19 15 17 18 25 26 28 24 18 17 12 17 25 21 22 27 17 19 20 25 27 30 29 32 33 32 31 33 32 32 31 32 31 31 29 29 28 29 27 28 28

GFSNW_sfc_temp_057.txt.gz
Temp
54 54 54 55 55 53 45 37 38 48 50 38 40 35 38 45 44 43 42 43 42 37 39 37 35 34 39 45 44 38 39 36 30 34 41 44 43 37 36 29 25 26 26 30
54 54 54 54 55 53 38 34 41 48 47 34 35 39 41 43 41 40 40 40 42 40 36 33 35 36 43 44 42 39 40 31 28 31 37 41 38 40 38 34 31 24 26 33
54 53 54 54 54 52 40 34 29 39 43 42 37 36 36 37 42 41 42 39 41 38 35 37 35 37 43 44 44 48 45 33 29 26 30 34 33 39 41 38 32 35 32 38
53 53 53 53 53 52 39 31 30 31 26 31 37 37 36 34 35 40 41 38 37 34 32 33 33 37 39 44 46 42 40 28 28 33 35 35 34 35 38 36 38 32 38 37
53 53 53 53 52 49 34 31 29 29 28 30 31 38 37 35 37 37 36 35 37 36 34 33 32 35 34 35 40 39 38 28 30 26 34 34 32 33 34 37 39 39 39 38
53 52 52 52 51 46 32 30 32 32 30 28 34 33 36 34 38 41 40 37 36 35 36 36 38 38 38 38 37 33 34 28 24 23 30 31 28 34 34 34 36 38 34 42
53 52 52 52 51 44 34 31 30 31 28 30 32 31 37 34 34 35 39 39 38 38 41 40 40 39 38 39 35 37 31 29 29 20 26 17 34 37 37 36 38 39 40 43
53 52 52 51 50 48 35 32 32 30 25 29 30 30 29 34 34 36 40 40 40 40 40 39 34 33 34 35 37 36 36 31 24 21 20 28 33 35 35 34 36 39 39 43
52 52 52 52 50 48 36 34 33 32 29 25 30 28 28 25 25 32 40 44 44 42 37 34 28 24 28 28 33 41 41 38 31 25 20 20 33 38 41 40 31 42 41 41
52 52 52 52 51 49 39 37 35 33 27 28 28 26 26 29 26 25 29 35 36 41 33 31 29 26 30 26 28 28 31 34 26 27 24 30 37 40 41 28 33 42 42 42
52 52 52 52 51 49 41 38 38 34 28 29 33 33 28 29 27 24 28 32 35 36 33 31 30 29 27 25 27 27 28 26 25 28 25 22 39 38 35 39 41 42 42 43
52 52 52 52 51 49 44 35 40 39 32 31 34 35 35 35 34 29 28 31 34 32 33 33 35 34 32 26 24 30 28 31 29 30 30 39 39 39 40 39 38 40 40 43
52 52 52 52 51 50 44 35 36 34 31 30 32 31 36 40 37 39 29 29 34 35 34 33 33 32 35 30 31 26 31 33 32 34 36 35 37 39 38 38 39 42 42 42
52 52 52 51 50 49 44 36 36 34 30 27 29 38 33 38 39 39 37 35 35 33 29 29 29 29 31 32 29 28 32 34 30 31 34 35 36 40 40 40 41 40 41 42
52 52 52 51 49 47 40 36 35 36 33 27 29 32 35 37 38 37 37 35 32 28 24 23 25 30 29 29 28 26 31 28 27 26 33 32 35 38 40 37 37 38 39 40
52 51 51 49 48 45 37 32 36 37 34 28 23 32 30 34 35 35 34 33 31 29 28 25 28 32 29 26 26 32 33 34 34 32 37 36 36 38 38 36 37 39 38 40
51 50 50 49 47 38 34 33 36 40 35 28 19 20 32 32 32 31 30 31 29 29 27 28 27 28 30 29 26 34 35 37 38 38 36 33 37 36 39 38 38 39 38 39
50 50 49 49 48 43 34 38 43 38 29 26 13 16 24 33 29 33 33 28 28 28 27 28 27 29 28 25 32 35 37 36 36 36 36 35 37 39 39 40 39 37 37 37
50 49 48 38 33 30 32 45 41 35 32 19 18 17 12 31 29 34 32 29 25 29 26 26 29 27 23 32 33 34 35 33 33 35 35 36 36 35 36 35 35 36 38 38
49 40 35 30 32 44 43 34 30 28 27 26 20 29 17 25 25 26 30 27 24 15 26 29 27 25 33 34 35 35 36 35 34 31 31 32 33 32 32 33 36 36 37 37
37 33 31 35 42 33 30 21 22 23 20 24 23 23 20 30 22 24 30 29 21 11 21 23 20 23 29 33 33 34 34 36 35 35 34 34 34 32 32 33 34 34 33 33
38 36 36 32 28 23 22 12 21 21 20 25 23 25 28 28 32 30 33 25 27 15 24 18 15 25 28 29 31 32 32 33 35 36 34 33 34 34 32 32 31 31 32 32
36 33 27 27 21 19 17 16 14 15 20 23 21 18 25 28 32 27 29 25 22 29 24 19 21 26 31 30 29 30 32 33 33 34 35 34 33 33 32 31 32 31 32 32
30 26 20 18 17 17 17 19 18 23 25 25 25 19 25 30 27 30 24 27 30 24 15 14 16 23 29 30 31 30 29 30 30 30 30 31 31 30 31 31 29 29 29 31
26 27 20 17 21 20 18 20 21 26 29 25 23 20 24 18 24 30 26 22 24 17 15 16 20 22 25 26 28 28 27 26 26 28 29 29 30 30 30 31 30 29 29 29
24 20 20 24 20 19 24 21 19 23 26 27 23 15 14 17 20 22 18 16 12 18 15 21 27 24 25 25 27 27 27 27 28 29 28 32 30 30 30 30 30 28 28 28
23 19 27 22 21 20 21 24 26 27 26 19 17 13 17 23 21 20 25 21 19 19 24 29 29 24 25 26 26 28 28 27 27 27 32 32 32 29 29 28 29 28 28 28

GFSNW_sfc_temp_060.txt.gz
Temp
55 54 54 55 55 53 52 49 41 54 53 41 41 38 40 45 48 50 48 47 44 40 41 40 39 39 41 48 47 40 46 44 33 36 45 50 49 47 48 39 34 39 39 42
54 54 54 54 54 53 51 47 44 50 50 38 39 42 43 46 46 47 47 45 47 48 43 38 40 43 48 47 48 45 48 41 31 32 40 45 43 46 48 45 42 36 36 44
54 54 53 54 54 53 53 47 38 43 44 45 41 40 41 42 48 47 48 46 48 46 43 45 41 41 46 50 49 48 50 42 38 37 38 45 39 44 46 44 35 39 41 45
54 53 53 53 53 52 53 46 42 42 36 42 43 43 42 40 41 47 48 45 44 44 42 42 41 43 43 47 48 48 48 35 36 41 41 41 41 42 44 39 43 37 43 45
54 53 53 53 52 51 48 44 43 42 41 40 42 42 41 39 40 43 43 43 44 46 42 41 41 44 44 42 47 46 46 35 37 33 39 40 37 42 43 44 45 45 46 44
53 53 52 52 52 51 46 41 43 47 37 40 43 41 39 36 40 45 45 43 45 43 42 44 46 48 48 49 46 42 42 38 35 33 37 38 34 40 42 43 45 46 40 48
53 53 52 52 50 50 49 44 46 46 37 42 40 38 40 36 37 38 44 46 45 44 49 47 48 49 47 48 45 48 42 39 38 33 35 28 40 46 45 44 46 48 48 49
53 53 52 51 50 47 46 42 46 46 36 40 37 38 37 40 38 36 41 45 47 49 47 46 42 42 43 43 45 45 47 43 34 33 33 39 41 43 43 42 43 49 48 50
53 52 52 51 50 48 46 42 44 47 41 36 37 37 36 39 39 40 41 47 47 49 48 44 36 34 37 36 38 45 44 46 42 35 29 29 42 47 49 48 39 48 49 49
53 52 52 52 51 49 47 42 43 46 38 38 38 38 38 38 37 39 39 38 42 47 43 39 38 36 40 35 35 36 38 39 35 36 33 39 47 48 49 36 38 47 48 47
53 52 52 51 50 49 47 42 45 46 39 37 39 39 37 37 39 39 38 39 41 37 38 39 38 39 38 38 38 38 37 36 36 36 32 29 47 47 41 42 47 46 47 47
52 52 52 51 50 49 47 43 45 47 42 39 42 42 43 42 41 40 38 37 35 36 34 39 39 37 39 37 35 40 36 40 39 40 40 45 47 46 46 46 44 45 44 47
52 52 52 52 51 50 46 42 44 45 40 39 41 38 43 46 45 46 40 39 38 39 40 39 38 34 37 36 37 38 40 43 40 40 41 41 46 46 48 47 44 45 46 46
52 53 52 51 50 49 46 44 43 43 42 37 36 44 41 45 46 44 44 42 41 41 40 39 39 37 38 39 36 38 40 41 36 39 43 44 45 48 46 44 44 44 45 45
52 52 51 50 49 47 44 43 42 43 42 36 36 40 42 44 44 42 43 42 40 40 38 36 35 37 38 38 37 36 40 35 34 35 41 38 40 43 43 42 42 43 42 41
52 51 50 49 47 44 44 41 44 44 42 38 32 38 39 41 42 41 39 40 39 39 38 35 37 37 36 33 34 39 40 40 40 36 41 38 40 41 43 40 40 41 41 41
51 50 49 48 47 44 41 41 42 43 43 39 30 32 38 39 39 39 39 39 38 38 36 35 36 36 36 34 33 40 41 41 40 40 38 34 37 35 39 39 41 42 41 41
51 50 49 48 47 45 40 43 44 43 38 37 29 29 33 39 36 34 39 37 37 36 35 36 35 36 35 31 39 40 41 40 39 39 39 37 38 38 39 40 39 36 36 39
50 49 47 43 40 38 39 44 43 41 40 32 31 30 28 38 36 36 36 37 33 36 34 34 34 34 29 39 40 41 40 37 37 38 37 37 36 35 36 35 35 34 36 38
48 44 39 35 37 44 45 40 39 37 36 35 28 32 30 35 34 33 32 34 31 28 33 35 31 33 39 41 42 42 41 39 38 32 31 33 32 33 33 33 34 35 34 35
40 36 33 37 43 38 36 32 33 33 32 33 30 31 31 36 31 32 35 30 29 26 30 30 30 30 37 42 40 41 41 40 39 38 37 36 34 32 32 33 35 34 33 32
40 38 39 37 34 30 29 21 29 32 31 31 32 32 34 34 36 33 33 28 29 24 31 27 25 35 36 37 38 40 41 40 39 40 38 37 35 35 34 32 32 32 32 33
40 37 32 34 27 25 28 21 25 27 29 28 30 29 33 34 35 31 31 27 27 32 27 26 32 35 38 38 35 35 38 38 38 37 38 37 37 36 35 33 34 34 34 36
35 32 26 29 27 29 28 30 29 30 30 29 31 29 30 32 29 31 26 32 32 26 23 25 33 35 36 36 36 35 34 34 34 32 32 32 33 34 35 35 34 32 32 34
32 33 26 25 24 25 25 24 28 29 31 30 28 29 32 27 28 32 29 26 23 28 27 31 34 33 32 33 35 34 33 32 31 32 31 30 31 33 34 35 33 32 32 32
29 27 24 26 27 23 27 25 25 30 30 31 31 26 24 25 27 26 23 21 20 28 29 33 33 32 31 32 34 34 34 34 34 32 31 31 32 33 33 34 33 32 31 31
30 25 31 29 30 29 29 32 31 32 32 29 27 23 25 27 22 22 28 24 30 32 33 34 34 33 33 34 33 34 33 33 33 31 30 30 32 33 32 31 33 31 30 29

GFSNW_sfc_temp_063.txt.gz
Temp
55 56 55 55 55 54 52 54 42 56 58 43 45 42 44 46 50 53 51 50 48 42 44 41 42 38 41 51 51 46 50 43 33 36 47 52 52 49 50 40 36 43 41 44
55 55 55 55 55 54 57 51 47 57 53 39 43 46 46 49 49 49 49 48 49 51 47 40 44 44 48 50 49 46 49 41 32 33 43 48 46 50 51 50 45 38 37 45
54 55 54 54 55 55 55 51 38 46 48 49 46 45 45 45 51 50 51 50 52 49 47 49 44 43 46 51 51 49 51 46 41 37 41 48 42 47 50 48 37 41 43 47
55 54 54 54 54 55 55 53 50 50 37 46 49 48 48 45 44 51 52 49 48 48 45 46 44 45 45 50 50 51 51 38 38 44 45 45 44 46 48 41 44 39 46 47
55 54 54 53 54 53 53 49 48 48 49 49 48 46 46 45 45 47 46 46 49 50 46 45 44 45 46 46 50 49 50 36 40 35 43 43 40 45 47 47 48 47 48 47
54 54 53 53 53 54 53 51 52 53 44 47 47 47 46 44 45 47 49 48 50 46 45 49 50 53 52 53 48 47 46 40 36 35 41 40 36 43 45 46 49 48 42 51
54 53 53 52 53 53 57 55 56 51 43 47 47 45 45 39 43 43 47 51 50 48 53 52 53 54 53 52 50 53 45 42 41 34 38 29 42 50 48 46 48 50 50 51
54 53 53 52 53 52 54 52 53 53 45 48 43 43 44 42 41 43 46 48 50 53 51 48 44 44 45 46 49 50 51 47 38 34 36 43 42 45 46 45 41 50 48 51
53 53 52 51 51 50 53 51 52 56 46 43 47 44 46 44 43 42 45 51 53 53 51 47 38 36 41 38 40 48 48 49 43 38 31 31 43 49 52 51 39 48 49 48
53 53 52 51 51 51 53 48 49 54 43 42 45 44 43 45 45 46 45 45 47 51 47 41 40 38 45 37 37 38 40 42 37 36 34 41 47 49 52 36 37 47 48 48
53 53 52 51 51 51 53 46 50 53 44 41 44 44 43 43 45 45 42 43 45 42 41 41 42 42 43 42 44 42 40 38 37 37 32 31 48 49 41 44 48 48 48 48
53 52 52 51 50 50 53 45 52 55 47 41 47 46 46 45 44 45 44 42 42 43 37 42 43 39 43 42 36 45 37 43 41 42 41 47 50 49 49 49 47 47 46 47
52 52 52 51 51 50 52 47 50 51 44 44 45 40 46 50 48 49 43 44 43 43 44 43 40 36 41 39 41 42 44 46 42 42 45 46 49 51 50 50 46 46 47 47
53 53 52 51 51 51 51 48 49 52 49 40 38 48 44 49 50 48 48 45 46 46 45 43 43 39 43 43 41 41 45 43 41 41 47 48 50 51 50 46 46 46 47 46
53 52 51 50 50 50 50 48 47 49 47 39 38 45 45 48 48 46 47 46 45 45 41 40 39 42 41 43 42 40 45 42 39 39 44 42 43 47 45 42 42 45 42 41
51 51 50 49 50 51 51 44 47 48 49 40 34 42 41 44 46 44 43 44 43 43 43 40 40 41 39 37 37 44 45 44 44 40 43 41 42 43 44 41 40 41 41 42
50 49 49 49 49 47 44 42 45 47 49 42 32 34 41 43 43 43 42 44 42 43 40 40 40 39 39 37 36 44 46 46 45 45 42 38 40 38 41 40 40 42 42 43
50 49 49 49 48 47 44 45 45 48 45 43 33 31 35 42 38 37 43 41 42 39 39 39 38 39 38 33 43 45 45 45 44 44 44 41 41 40 40 40 39 37 37 38
49 49 49 47 44 44 42 45 46 47 45 36 36 32 30 41 39 39 40 42 37 39 37 38 37 38 31 41 44 44 44 41 41 42 41 40 37 37 37 37 36 34 35 36
49 47 44 38 38 45 46 44 43 41 42 41 33 37 32 39 38 34 34 38 35 30 37 38 34 36 45 45 45 44 43 43 42 33 33 35 33 35 35 34 36 35 35 35
43 38 34 38 44 43 41 35 37 39 35 38 36 36 34 39 34 33 36 31 32 28 32 32 33 34 41 46 44 45 45 44 44 43 42 40 39 35 35 34 35 35 35 33
42 40 41 41 39 35 34 29 33 35 34 35 36 36 39 36 38 35 34 30 30 28 34 29 27 37 38 40 40 42 43 43 42 42 40 40 40 39 38 35 34 34 34 33
42 41 34 37 31 31 33 26 29 30 34 32 34 31 37 35 36 33 32 28 28 35 28 28 34 37 41 40 38 37 39 40 40 38 38 38 37 38 38 37 38 37 37 37
39 35 30 32 29 33 35 37 34 35 35 35 37 33 34 34 32 32 28 34 33 27 25 27 35 37 38 40 40 38 36 37 36 34 33 32 33 33 36 38 38 37 35 36
34 36 31 29 28 29 29 31 32 34 38 35 33 33 36 30 29 33 31 27 24 30 30 33 37 37 36 36 37 38 37 36 34 34 32 31 31 33 34 37 37 36 34 34
33 31 27 30 30 28 31 32 29 35 36 37 37 31 29 27 30 27 26 25 24 31 33 37 39 37 37 37 38 38 38 37 36 35 34 33 31 31 33 35 35 35 33 32
32 29 35 34 34 33 33 39 36 39 37 33 33 30 27 30 26 25 30 27 33 35 37 39 39 37 37 38 37 37 36 36 36 34 33 31 32 31 30 30 33 34 34 32

GFSNW_sfc_temp_069.txt.gz
Temp
54 56 56 55 56 55 51 45 36 52 50 37 40 36 43 48 48 49 49 48 45 37 39 38 36 34 38 46 45 39 42 35 30 31 42 45 42 42 42 31 30 30 28 32
54 56 55 55 55 55 46 42 41 52 48 30 36 44 43 48 47 46 48 46 47 49 42 38 40 38 47 48 47 39 41 31 28 29 37 42 38 42 44 40 36 28 26 32
54 55 54 54 55 56 49 42 35 41 42 41 35 37 39 41 47 46 48 46 46 44 41 46 39 41 45 46 47 50 47 36 29 24 29 38 34 41 43 38 24 32 34 36
55 54 54 54 55 56 48 42 36 39 34 34 37 39 43 42 40 45 47 43 44 45 40 42 40 43 43 46 47 44 43 30 30 37 40 38 38 39 40 35 37 30 37 37
53 54 53 54 54 55 44 39 37 39 36 39 37 39 40 43 42 42 42 41 44 42 39 37 39 42 43 39 42 41 42 29 31 28 39 38 33 38 39 40 41 40 40 39
54 53 53 53 54 52 42 42 43 41 39 35 35 36 40 44 43 44 45 44 41 39 40 41 41 45 47 44 41 40 38 30 25 24 34 32 27 35 37 38 40 41 36 40
54 52 53 53 54 53 46 44 41 37 33 34 38 41 42 42 40 40 44 44 42 42 45 44 44 43 44 44 42 46 38 33 28 21 27 17 34 40 41 40 40 41 41 41
53 53 53 53 54 54 46 43 42 38 32 36 39 39 37 38 39 39 41 43 43 45 42 38 34 34 36 39 41 40 42 36 27 23 22 31 34 38 38 37 34 40 39 40
53 52 53 53 54 55 46 41 41 40 36 31 36 36 37 34 34 35 41 45 46 43 40 37 28 26 32 30 33 41 42 40 31 27 21 22 34 41 45 44 30 40 41 39
52 52 52 53 54 54 46 41 42 39 31 33 36 34 34 37 35 33 38 39 40 43 35 32 29 26 36 28 28 29 31 32 26 27 22 29 38 42 44 28 28 40 40 39
52 51 51 53 54 53 46 41 44 39 31 33 37 37 33 35 34 33 35 37 38 36 33 32 30 29 32 30 33 32 30 26 26 27 24 21 40 40 33 35 38 39 39 38
51 50 51 53 53 52 48 41 46 45 35 33 41 40 40 39 37 36 36 35 35 35 32 33 32 31 31 30 26 34 31 33 31 31 30 39 40 38 38 38 36 35 35 37
50 50 51 52 53 53 48 41 43 39 34 33 33 33 40 44 42 43 34 34 38 36 36 33 32 31 32 28 29 30 32 36 33 35 35 37 36 37 38 37 36 36 37 36
50 51 52 52 53 53 49 41 42 41 37 28 30 43 37 44 43 43 42 39 40 38 35 31 32 30 34 30 32 31 34 36 33 32 33 34 34 35 36 37 38 38 39 39
51 50 50 51 53 51 44 40 41 42 38 28 29 37 40 41 41 41 41 40 37 33 30 27 28 31 32 31 31 28 34 33 30 29 33 32 33 35 37 34 35 37 37 37
50 50 50 52 51 49 43 38 43 43 41 31 25 36 36 39 39 38 38 37 35 33 31 29 29 34 29 25 25 34 34 35 36 32 34 35 35 36 35 34 35 36 36 35
50 51 51 51 48 40 39 37 41 45 42 31 25 24 35 37 36 34 34 35 32 32 30 29 28 29 27 26 25 34 35 36 36 36 34 32 33 31 34 34 35 36 35 35
51 50 49 50 49 45 38 40 45 44 37 33 21 24 27 36 30 29 33 31 31 30 29 30 28 29 28 24 31 34 36 36 35 34 34 33 33 33 33 34 33 31 31 32
50 50 50 44 40 38 40 46 45 40 36 27 23 19 17 34 35 34 31 31 28 31 28 28 30 27 22 31 33 33 34 34 32 34 33 32 31 31 31 31 30 29 31 31
50 46 40 35 36 46 45 40 35 32 31 30 22 24 24 34 34 32 32 32 29 20 28 30 27 26 33 33 34 34 35 36 34 23 27 29 27 29 30 30 31 30 31 32
40 34 33 37 44 38 36 29 26 28 25 26 23 24 25 32 27 30 33 30 31 25 25 24 27 29 33 34 33 34 34 34 34 33 33 31 31 27 28 30 31 31 31 30
41 38 39 36 34 29 26 18 28 28 24 27 26 28 28 29 32 27 30 27 29 25 30 27 24 29 33 34 32 31 32 31 33 34 33 32 31 31 29 28 27 28 29 30
40 35 30 28 23 21 20 21 22 19 25 25 26 21 27 29 34 32 31 24 25 32 27 24 28 30 35 31 27 31 32 33 33 32 32 31 30 30 29 28 30 30 30 31
33 28 24 21 17 21 27 27 24 26 26 29 27 24 25 30 28 31 13 29 29 15 12 14 23 32 30 31 32 30 28 29 29 27 25 26 27 28 29 29 28 28 28 29
25 25 22 17 25 24 25 26 27 26 30 28 26 25 27 24 20 25 22 21 8 16 16 23 22 26 27 29 29 28 27 23 23 24 23 24 24 25 27 28 27 26 27 27
24 22 21 26 22 20 24 26 29 27 29 26 27 22 18 18 19 16 12 12 10 17 18 23 25 26 28 27 29 29 29 28 28 26 25 26 23 25 26 25 25 26 26 26
24 23 28 26 25 24 25 28 28 30 28 22 23 18 19 22 16 16 17 14 18 21 22 22 27 28 28 28 29 29 29 28 27 24 25 24 25 20 18 20 26 24 27 26

GFSNW_sfc_temp_072.txt.gz
Temp
54 54 54 54 54 54 51 45 37 50 50 38 39 34 42 47 47 47 47 47 41 34 36 34 33 32 36 43 43 37 38 34 29 31 41 42 40 37 37 26 26 27 26 32
53 53 53 55 54 54 47 41 41 50 48 33 35 43 42 47 45 46 47 46 46 44 37 33 35 36 43 45 43 37 39 30 20 27 35 40 37 41 42 38 32 26 25 31
53 52 53 56 55 55 48 41 35 41 43 42 38 39 38 41 48 45 49 45 47 42 41 40 35 37 45 45 44 49 46 34 29 24 29 35 32 38 40 36 25 31 32 35
51 52 52 55 54 54 48 42 35 39 33 35 36 38 40 39 38 43 44 41 43 43 38 40 38 42 42 44 47 44 41 29 28 34 37 36 35 37 38 32 34 29 36 37
51 51 52 54 54 54 44 39 35 37 33 36 37 39 37 39 39 41 40 39 40 41 37 36 36 42 42 36 39 38 39 26 30 27 36 36 32 35 37 38 38 37 38 38
51 52 53 53 53 52 43 41 42 40 36 32 36 36 38 42 41 42 43 42 39 37 39 39 40 45 43 42 39 37 36 30 25 23 31 33 28 33 35 36 38 39 35 40
51 53 53 53 53 51 45 43 40 37 32 33 36 40 41 41 39 39 41 42 40 41 44 43 44 46 43 42 40 42 35 31 27 20 26 17 33 39 39 37 37 38 38 39
53 53 53 52 52 52 45 43 41 36 30 34 37 38 37 41 38 38 40 41 41 43 42 37 34 32 35 37 41 43 40 34 26 23 20 29 33 36 36 34 32 37 36 37
53 53 52 52 53 53 45 41 40 38 35 29 35 35 35 33 32 34 38 43 44 43 38 35 27 25 29 28 31 38 40 37 31 26 21 22 33 38 42 41 28 36 38 35
53 52 52 52 52 53 46 41 41 38 30 31 34 33 34 36 34 32 35 37 39 41 34 31 28 25 34 27 27 29 30 34 26 26 21 28 36 39 41 27 29 36 36 36
53 52 51 51 53 53 46 40 42 38 30 32 36 36 33 35 34 32 35 37 37 35 32 31 30 28 30 28 30 29 29 25 25 26 25 22 38 37 33 34 35 36 35 35
52 51 51 52 53 53 49 38 44 43 34 33 39 38 38 38 37 35 34 34 34 35 32 31 30 30 29 28 25 32 29 32 29 30 30 35 34 35 35 37 35 33 33 35
51 50 50 53 53 53 48 41 40 38 31 33 33 33 40 43 40 41 34 33 37 35 35 32 31 31 31 27 28 28 30 34 31 33 33 31 33 34 35 35 34 35 35 35
50 51 51 53 54 52 49 42 39 39 35 28 30 42 37 42 42 42 40 38 38 37 34 30 30 30 32 29 31 30 33 34 31 29 29 31 32 33 33 34 35 35 36 36
50 50 52 52 52 50 44 42 40 41 36 28 29 36 39 39 40 40 40 39 35 32 30 27 27 29 30 29 29 27 32 32 30 29 32 31 31 34 35 32 33 34 34 33
50 50 51 52 51 49 43 39 43 43 41 30 25 35 35 38 38 37 36 36 33 32 30 27 28 32 28 25 25 31 32 33 34 31 32 33 33 35 33 32 33 34 33 33
50 50 51 51 48 41 38 38 41 45 41 31 26 27 34 36 35 34 33 34 31 31 29 29 28 29 27 26 24 32 32 33 33 33 33 31 32 30 32 32 33 34 33 32
50 50 50 50 49 45 38 40 46 43 36 31 22 27 27 34 30 29 32 30 30 30 28 29 28 29 27 24 30 31 33 33 32 32 32 32 31 30 31 32 31 30 29 29
50 51 50 43 39 36 37 47 45 40 37 26 22 20 19 32 30 31 31 30 28 30 28 28 29 26 21 30 31 31 33 32 31 31 30 30 29 30 29 28 29 27 28 29
50 44 39 34 35 45 45 40 35 30 30 28 19 23 24 29 28 29 26 30 25 15 27 29 28 25 31 31 32 33 33 32 32 23 26 27 24 28 27 28 28 28 28 29
40 36 33 37 44 38 34 26 25 26 22 25 21 23 25 32 25 28 31 29 30 25 27 24 21 27 30 33 32 32 32 31 30 31 31 30 28 25 26 28 29 29 28 27
41 38 39 37 34 30 28 23 26 23 21 25 25 26 28 29 31 26 28 25 29 19 29 27 23 25 28 30 32 31 31 29 31 31 31 30 31 29 27 26 25 25 25 26
40 34 31 30 25 22 21 18 17 21 24 23 24 22 26 29 30 28 28 18 19 30 26 22 23 27 31 30 26 30 30 29 31 31 30 30 29 29 28 27 27 27 26 28
33 26 23 25 22 21 23 26 22 25 25 27 25 23 25 28 24 26 15 27 27 13 9 14 20 28 30 29 30 29 26 28 28 24 24 25 26 27 29 28 27 26 25 28
29 27 28 17 26 27 22 19 24 25 30 26 24 23 25 20 21 26 23 20 9 15 15 19 22 26 26 27 28 28 26 21 20 20 19 20 22 24 25 28 26 25 25 25
27 21 19 26 24 22 22 23 25 25 28 25 26 20 17 17 21 17 13 14 13 17 17 23 24 25 26 26 28 28 27 26 27 23 22 23 21 23 24 25 24 25 25 25
23 20 28 26 19 19 22 28 28 29 27 21 21 17 18 22 16 16 17 16 19 21 21 21 26 28 27 27 28 29 29 28 26 23 24 22 23 18 17 19 25 23 26 25

GFSNW_sfc_temp_078.txt.gz
Temp
55 54 54 55 54 53 50 44 34 47 50 37 38 31 34 44 42 44 42 40 37 32 33 34 30 29 33 41 39 34 36 32 30 32 37 38 36 35 34 27 26 24 24 30
54 54 54 54 55 53 47 39 40 48 47 33 34 35 38 42 42 42 42 39 40 38 34 30 31 33 41 42 40 34 37 29 19 26 33 37 35 37 36 33 30 24 21 28
54 54 54 54 54 53 48 40 33 40 43 40 32 31 35 38 44 43 44 41 42 37 34 36 31 34 41 42 42 47 43 31 28 22 28 32 32 34 35 33 22 27 27 29
54 54 53 54 53 52 47 40 36 39 33 36 31 34 38 38 37 42 43 39 40 38 32 33 31 35 38 41 44 39 38 28 27 31 33 34 33 34 34 30 31 28 32 33
53 53 53 53 53 53 45 38 36 38 34 38 33 38 40 40 37 38 36 37 38 38 34 33 32 36 34 32 39 35 36 25 28 26 33 34 32 34 33 34 33 33 34 31
53 53 53 53 53 52 44 41 42 40 38 34 32 37 40 41 40 40 39 39 37 37 36 38 37 39 39 37 34 34 33 28 23 22 29 31 26 29 32 33 33 34 31 37
55 55 54 54 54 51 45 42 41 38 32 31 33 41 42 39 38 37 38 40 38 39 41 40 42 43 39 39 36 38 32 29 25 19 26 17 31 34 35 34 34 34 34 35
54 54 55 54 54 51 43 42 40 34 29 31 39 40 39 38 36 36 37 38 38 41 39 35 33 32 33 34 38 36 36 31 24 21 18 27 29 32 32 31 31 34 33 34
54 53 53 52 52 51 44 39 38 35 33 32 32 37 40 36 31 33 37 41 41 40 36 33 25 24 26 27 30 40 38 35 29 26 20 19 28 34 37 36 28 33 35 34
53 53 53 53 53 53 45 38 38 35 28 29 33 35 36 37 36 31 32 35 37 38 32 31 27 23 28 25 25 26 30 32 30 30 20 27 32 36 38 25 28 33 34 33
53 53 52 52 53 53 45 38 39 35 29 32 33 35 35 36 37 33 34 36 37 34 31 30 28 27 27 25 26 26 28 24 24 29 27 20 32 35 29 33 31 33 33 32
52 52 52 53 53 53 49 38 41 41 33 31 36 35 39 35 34 34 32 33 33 34 31 30 29 29 26 25 24 28 27 30 28 29 29 32 30 31 32 34 33 31 31 32
52 53 53 53 54 53 47 38 37 37 32 31 32 31 39 40 37 39 34 33 36 34 33 31 30 31 30 25 26 24 28 31 29 31 29 29 30 31 32 32 31 32 32 32
52 52 53 54 53 53 48 40 37 37 34 28 29 39 35 40 39 39 39 38 36 35 33 29 30 31 30 27 29 28 31 31 29 29 29 28 31 32 32 32 32 32 32 32
52 52 53 52 52 51 43 39 38 38 37 28 29 34 37 38 38 38 39 38 35 32 30 26 27 28 29 26 27 26 30 30 29 29 32 31 31 32 34 31 30 31 30 30
51 51 52 51 50 49 43 37 40 40 39 31 24 32 32 36 37 35 34 34 32 30 30 27 27 30 27 25 25 30 29 30 32 31 30 31 31 32 31 29 30 29 30 30
51 51 51 50 49 42 39 36 39 44 39 30 22 24 33 33 33 32 32 32 31 30 28 28 27 28 26 26 25 30 30 30 30 30 30 28 30 28 29 29 30 31 29 29
51 51 50 50 49 46 39 39 46 42 34 31 22 23 26 33 30 29 31 30 31 29 27 28 27 28 27 24 29 28 30 30 29 29 29 29 29 28 27 28 28 27 27 27
51 50 49 43 39 37 36 47 44 38 36 24 24 21 18 32 30 30 31 31 28 30 27 27 28 26 23 30 29 28 30 31 30 31 28 27 26 26 27 25 25 24 26 26
50 43 37 33 35 45 44 37 34 32 31 29 20 23 21 27 26 27 26 29 26 20 27 28 26 25 31 30 30 31 32 32 32 23 25 25 23 27 25 26 26 25 25 26
39 33 31 35 43 37 33 26 25 27 24 29 25 24 25 32 24 25 29 21 23 16 24 23 18 20 27 29 29 30 31 31 28 29 29 28 27 23 25 26 27 27 26 25
40 38 38 36 32 27 25 19 24 23 24 24 24 25 28 28 30 26 26 21 20 17 26 18 14 23 27 28 29 28 28 28 28 28 29 29 29 26 26 24 22 23 24 24
41 35 31 28 24 20 18 18 16 20 25 26 26 23 26 28 29 24 21 16 17 28 23 14 19 25 29 27 25 29 28 28 30 30 29 29 27 28 26 25 25 24 23 24
33 28 25 23 16 21 23 23 24 26 27 26 24 25 24 27 23 24 14 27 26 15 9 14 17 24 28 27 28 28 25 28 28 24 23 24 27 26 27 27 25 23 22 25
30 26 21 19 25 23 22 20 22 24 28 25 23 22 24 19 20 25 26 21 14 16 17 19 19 21 25 26 27 26 25 20 19 19 18 18 19 20 23 25 25 23 23 23
27 20 16 23 20 23 25 19 24 25 26 25 25 19 15 17 20 16 18 16 15 20 18 21 22 22 25 26 27 26 25 24 24 21 20 21 19 21 21 20 21 23 23 22
26 18 25 26 25 25 26 26 26 27 27 21 20 17 19 20 13 17 17 17 20 18 18 20 24 26 25 25 26 27 26 24 22 19 20 18 20 13 14 17 21 20 23 22

GFSNW_sfc_temp_084.txt.gz
Temp
55 55 55 55 55 54 49 44 34 47 50 36 37 35 38 43 44 48 47 46 43 42 41 41 40 39 42 49 46 43 46 46 37 40 47 47 45 43 44 41 36 39 42 39
54 54 55 55 54 55 49 39 37 48 47 33 34 41 42 42 44 46 46 43 46 45 42 39 41 42 49 49 47 44 47 42 35 38 44 47 45 45 46 44 44 36 39 39
55 55 54 53 54 54 51 42 33 38 42 41 41 39 37 38 48 48 48 45 48 45 43 45 41 42 47 49 48 46 49 42 37 36 36 41 41 44 46 45 40 42 41 40
56 56 54 54 54 54 51 43 37 41 35 38 43 41 39 42 41 48 50 46 46 45 41 42 41 44 46 48 47 47 48 36 36 40 41 42 42 42 45 40 43 41 42 44
56 55 54 54 54 54 48 42 42 42 41 42 43 42 40 42 41 43 44 44 44 47 43 44 41 44 45 43 49 46 46 36 38 35 42 43 39 43 43 44 44 45 45 43
55 54 54 54 54 54 48 47 48 50 40 40 43 42 42 43 45 45 44 46 47 44 44 48 48 50 48 47 46 44 43 40 36 34 39 40 38 40 42 43 44 45 43 45
55 54 54 54 54 52 50 47 51 47 38 43 42 42 44 42 42 43 44 46 47 46 51 50 53 52 50 50 47 47 43 39 38 35 39 31 40 44 43 42 43 44 44 44
55 55 54 54 53 52 48 48 50 47 39 43 44 44 43 44 45 42 42 44 46 50 49 46 42 43 44 45 46 47 47 44 36 36 37 38 39 42 42 41 41 44 44 44
54 54 54 54 53 52 49 45 45 50 46 39 37 41 44 44 43 44 43 49 51 50 47 44 35 35 36 37 41 47 46 47 43 38 32 32 40 44 46 46 40 44 45 44
54 54 54 54 52 51 49 45 44 49 41 38 38 43 42 44 43 43 43 45 48 49 46 41 38 37 38 36 35 37 40 41 37 38 35 39 44 45 46 36 40 45 46 46
53 53 54 54 54 51 50 45 45 48 41 38 39 39 41 43 44 45 44 45 46 45 42 41 39 39 39 38 38 38 37 37 38 37 33 31 44 43 41 44 43 45 44 45
53 53 53 54 54 52 50 47 47 47 44 39 43 43 43 41 41 43 43 44 43 46 43 42 42 40 39 38 38 39 36 42 41 41 42 43 44 43 44 44 45 44 44 43
53 53 54 53 54 53 51 47 46 47 43 41 41 40 44 44 43 44 43 44 43 43 44 45 43 39 43 39 40 39 41 41 41 40 41 43 44 42 43 43 43 43 43 42
53 53 53 53 53 52 50 47 45 47 44 41 40 45 42 46 45 43 44 44 43 43 43 44 44 42 41 42 39 40 43 41 41 41 43 41 43 43 44 42 41 41 41 41
52 52 53 52 51 49 46 45 44 44 44 39 38 41 43 43 44 43 44 44 44 45 43 42 42 41 39 38 38 38 42 43 42 43 43 44 43 43 43 41 40 40 39 39
51 51 52 51 51 50 48 44 45 45 44 39 35 40 39 41 42 41 40 41 41 42 43 41 39 37 39 37 37 45 43 42 43 44 42 41 40 41 41 40 39 39 39 39
51 51 51 51 50 47 45 41 44 46 44 39 32 34 39 39 40 40 41 40 39 41 38 38 39 37 38 37 37 44 42 42 41 41 41 38 39 40 40 40 39 38 38 38
51 51 51 50 49 47 44 45 47 45 41 38 30 31 34 39 38 38 38 40 40 37 37 36 37 36 36 33 41 39 39 39 39 40 40 39 39 38 38 38 37 37 37 38
51 50 50 47 44 43 42 46 45 43 41 35 32 31 30 38 35 37 38 39 37 36 35 35 36 35 31 41 41 38 38 39 39 38 38 37 37 37 37 37 37 35 37 36
50 47 42 38 40 45 45 42 39 38 38 35 34 33 31 36 34 34 35 35 35 30 34 34 31 34 41 40 40 41 40 40 38 32 32 34 32 34 37 36 38 36 35 35
44 39 37 41 43 42 38 34 33 35 32 33 32 32 31 36 33 35 35 32 30 27 30 30 31 30 36 37 38 38 40 39 39 39 39 38 37 34 34 36 35 35 34 32
43 41 41 40 37 33 31 28 30 28 31 30 31 32 35 33 36 34 32 30 28 26 31 27 27 34 34 34 35 35 38 38 37 38 37 36 36 35 34 32 30 31 31 30
43 39 34 35 31 26 26 24 27 25 30 30 31 30 33 32 35 31 30 26 26 31 26 27 32 34 35 34 33 32 35 37 36 36 36 35 34 34 32 32 34 34 33 34
35 32 27 29 26 27 28 30 31 32 32 30 32 30 32 33 31 31 25 29 30 21 19 26 32 33 34 34 35 33 32 34 33 29 27 28 28 29 30 31 31 30 29 31
32 31 26 27 32 28 29 27 28 31 33 32 31 30 32 29 26 29 27 22 19 23 27 32 32 30 31 32 32 33 32 29 28 27 25 22 23 26 28 29 27 27 27 27
32 28 25 27 26 26 27 26 28 32 33 32 33 29 26 28 27 23 22 22 23 32 29 31 31 29 30 31 32 32 32 31 29 26 25 24 23 23 23 24 25 26 26 25
30 26 29 30 28 31 32 32 32 34 33 30 30 26 29 26 23 23 27 25 33 30 28 30 31 30 30 31 30 30 29 28 27 24 24 23 22 21 22 21 23 23 24 24

GFSNW_sfc_temp_087.txt.gz
Temp
56 56 55 55 56 55 55 49 35 48 51 37 38 36 37 43 47 52 50 50 49 47 46 44 44 40 46 52 50 46 51 47 40 43 51 51 48 47 49 41 39 44 43 37
56 56 55 55 55 55 56 39 39 48 50 36 36 43 41 41 45 49 49 47 50 50 46 42 46 46 52 53 51 48 51 46 37 41 46 49 48 51 52 49 49 42 40 38
56 56 55 54 55 55 57 45 34 40 44 46 45 43 37 39 51 51 52 49 52 49 47 50 45 46 50 53 52 47 51 47 40 36 37 44 43 47 51 49 40 43 44 41
56 55 54 54 54 55 57 49 40 45 37 44 49 46 41 46 45 52 53 49 50 49 45 47 45 48 50 53 51 52 52 39 39 44 45 45 45 45 47 43 48 43 45 46
55 55 54 54 55 55 56 50 47 49 48 49 49 45 47 46 46 48 48 47 50 52 46 49 45 49 50 48 54 51 52 39 42 38 46 46 42 46 48 47 48 48 49 46
55 55 54 55 54 53 56 54 56 57 45 48 48 44 46 47 49 49 50 51 51 47 46 52 54 55 54 52 50 49 48 43 38 36 44 44 40 42 45 46 48 47 45 48
55 55 54 54 54 54 59 55 58 53 43 49 47 47 49 47 47 47 49 51 51 50 56 56 57 56 55 54 53 54 47 44 42 36 41 32 42 48 46 44 46 49 48 48
55 55 55 54 54 53 56 55 56 55 46 49 48 49 48 50 50 47 47 49 52 55 53 50 45 46 46 48 50 51 52 48 41 36 40 41 42 45 45 44 45 48 47 48
54 54 54 55 54 53 57 51 52 57 49 47 47 49 50 50 49 48 47 53 56 54 52 48 39 39 40 41 44 51 51 51 45 42 34 34 43 47 50 49 41 49 49 48
54 54 54 54 54 53 55 51 51 54 48 46 45 49 49 50 50 49 49 50 51 53 49 44 42 41 43 39 39 40 43 44 40 41 38 42 48 49 50 37 40 49 50 50
54 54 54 54 54 52 54 51 52 51 49 44 44 45 48 49 50 49 49 49 50 50 45 44 44 43 45 41 44 43 41 40 41 41 36 33 50 47 42 46 48 50 49 49
53 53 54 54 54 53 53 52 54 53 49 44 47 47 47 45 46 48 49 48 49 51 47 48 48 44 45 43 41 45 40 45 43 43 44 48 50 49 49 49 49 48 48 48
53 54 54 54 54 53 52 52 51 54 49 45 46 45 48 49 48 49 48 51 49 49 49 50 48 42 48 42 44 44 46 47 44 44 49 48 50 50 49 49 48 47 47 47
53 53 53 53 52 52 53 51 50 51 50 45 44 49 46 50 50 47 49 48 49 49 49 48 48 44 47 46 44 44 48 45 45 45 50 48 49 50 50 47 46 45 45 45
52 52 52 52 51 51 52 51 49 49 46 42 44 45 48 49 49 47 48 47 48 49 46 44 45 47 44 45 42 42 48 47 43 45 51 50 48 48 49 46 44 45 44 43
51 51 52 52 51 51 54 48 49 49 48 42 38 45 43 46 47 46 45 46 47 48 48 47 46 42 42 40 41 52 53 51 53 50 48 47 45 46 46 45 44 44 43 43
51 51 51 51 51 53 49 47 48 49 50 43 37 38 42 43 44 45 46 46 45 45 45 43 45 42 40 40 39 52 51 50 48 47 46 42 43 44 44 44 43 42 42 43
51 51 51 50 50 49 49 49 48 49 47 42 34 35 37 42 42 42 44 44 45 43 43 41 41 40 40 36 46 47 47 46 45 45 45 43 45 43 42 42 42 39 40 42
51 50 50 51 50 48 47 47 47 48 47 38 36 33 33 41 40 41 42 42 38 41 39 40 39 40 33 43 48 45 43 41 43 42 42 41 41 41 41 40 40 39 39 41
50 51 47 42 45 45 47 46 43 42 41 40 35 40 35 39 39 39 39 41 39 32 39 38 33 36 45 48 47 48 45 44 42 33 33 36 35 37 40 39 41 40 39 38
49 44 42 46 45 46 44 37 36 39 35 38 37 38 37 40 36 39 41 36 36 30 34 33 34 34 42 46 45 45 45 43 43 42 42 41 40 36 37 38 38 37 36 34
47 46 46 46 42 37 33 33 34 32 35 35 36 37 39 38 40 38 37 33 32 28 35 30 29 39 38 39 40 41 43 42 40 41 38 38 38 38 36 34 31 31 32 31
47 44 36 37 35 30 30 28 32 31 34 34 34 33 37 36 38 35 33 28 29 35 28 29 35 37 38 37 36 36 40 40 39 37 38 37 36 36 34 33 35 34 33 34
39 34 30 32 29 31 35 37 36 37 36 34 36 34 35 37 33 35 27 34 32 25 22 28 37 37 38 38 37 35 35 37 34 30 29 30 30 31 32 32 32 30 29 30
33 33 29 31 38 34 34 32 33 35 38 35 33 33 36 32 30 32 30 25 22 27 30 35 36 36 35 35 37 36 34 32 30 30 27 23 25 28 30 30 28 29 28 27
33 32 29 33 31 32 32 32 32 36 37 37 36 32 29 29 31 27 25 26 26 33 32 36 35 33 35 35 36 36 35 34 31 28 27 26 24 25 25 26 27 26 26 25
32 31 36 36 33 36 37 38 38 39 35 32 33 28 30 29 27 26 32 28 34 33 34 35 36 34 35 35 33 33 32 31 30 28 26 25 24 23 24 23 24 24 25 25

GFSNW_sfc_temp_093.txt.gz
Temp
56 56 57 57 57 57 50 43 35 46 46 33 38 34 40 43 44 48 47 46 43 39 41 42 41 40 42 46 48 40 43 37 30 37 45 45 41 38 38 27 28 28 29 29
56 56 56 57 57 56 43 39 40 46 44 33 36 41 39 43 44 45 46 44 45 45 40 36 39 40 48 49 45 40 41 33 23 29 36 41 38 43 42 39 34 27 24 28
56 56 56 56 56 56 45 37 28 36 39 37 38 36 35 39 47 47 48 46 46 42 40 43 38 40 46 48 47 49 45 36 30 23 30 36 33 38 41 36 25 28 27 29
56 56 55 55 55 55 46 38 32 37 29 36 37 39 39 40 40 45 48 45 45 42 37 39 38 42 43 46 49 43 42 31 29 36 40 39 37 37 38 34 35 28 33 33
56 55 55 55 55 55 45 37 36 38 36 41 38 40 39 40 41 42 41 40 43 42 37 37 36 41 39 37 43 41 42 29 31 27 39 39 33 37 38 39 39 38 37 35
56 55 55 55 55 53 42 43 44 41 40 37 36 37 40 42 43 44 45 42 41 39 40 42 42 42 45 42 38 39 38 31 25 25 34 34 28 33 35 37 38 37 33 36
55 55 55 55 55 52 44 41 40 37 34 37 39 43 44 42 42 40 43 43 41 43 47 46 45 44 45 43 41 43 38 34 28 21 29 20 34 39 40 38 40 40 40 40
55 54 54 55 55 55 43 41 39 37 33 38 42 42 41 41 41 40 42 43 44 45 43 38 36 35 37 40 42 40 41 36 27 23 20 31 34 38 36 34 34 39 39 40
54 54 54 54 55 55 43 40 40 39 35 34 39 39 42 37 35 38 42 46 47 44 40 36 28 27 30 31 36 43 43 39 31 28 23 23 34 39 42 40 28 39 41 40
54 54 54 54 54 54 45 41 42 40 35 35 37 36 36 40 37 36 39 42 43 43 35 32 29 26 34 28 27 29 31 32 28 28 23 31 38 41 42 26 31 40 40 40
53 54 54 54 54 54 46 42 43 40 34 35 40 41 37 37 37 35 39 40 40 38 33 32 31 29 32 29 33 31 31 27 27 28 24 22 41 38 34 38 38 41 39 38
53 53 54 54 53 54 51 41 45 45 38 37 42 42 42 41 40 36 37 39 38 38 33 33 32 32 30 30 27 33 30 34 31 33 32 40 40 39 39 41 40 39 39 38
53 53 53 53 53 54 51 41 40 41 36 35 35 36 42 44 42 43 37 37 39 39 38 35 34 31 33 28 29 30 33 37 34 35 36 38 40 39 41 40 39 39 39 39
52 53 53 53 53 53 51 41 39 39 38 31 35 44 38 44 43 42 41 40 40 40 37 34 33 32 37 32 34 32 36 36 34 33 38 37 40 39 40 40 39 38 39 39
52 52 52 52 52 52 45 41 40 41 38 30 33 39 40 42 42 42 41 39 38 35 33 28 32 33 34 32 31 28 36 37 33 34 40 39 37 39 40 38 37 38 37 36
51 51 51 51 52 51 43 38 41 42 40 30 28 36 35 38 39 39 38 38 37 35 34 33 33 35 32 27 26 37 38 39 42 40 38 38 38 39 40 38 38 38 37 36
51 51 51 51 51 42 39 38 41 46 40 33 27 28 34 36 35 36 35 36 34 34 33 32 32 32 30 28 31 39 42 42 39 38 38 34 36 35 37 38 38 39 35 34
51 51 51 50 50 46 39 40 46 43 37 32 22 24 29 34 31 30 33 32 32 32 31 31 30 31 29 28 34 40 43 40 36 36 35 37 36 36 35 35 35 33 32 33
51 51 51 43 39 35 37 47 46 39 36 26 23 19 21 33 31 31 32 31 28 32 29 29 31 29 26 34 35 37 38 37 36 34 34 34 34 33 33 32 32 30 31 31
50 43 38 32 36 46 45 38 34 31 29 28 24 25 24 29 28 28 28 30 27 19 29 30 27 28 36 38 38 41 39 37 34 27 27 29 27 30 31 31 31 30 28 28
39 35 32 37 46 37 33 26 26 28 25 28 26 25 25 31 25 28 31 24 23 15 24 24 23 25 32 35 36 38 37 35 34 33 32 33 32 29 30 30 29 28 27 25
41 40 40 37 33 27 23 17 25 24 24 27 25 27 29 29 31 27 29 23 25 17 25 21 21 29 32 31 32 32 33 33 33 33 31 31 31 31 29 27 24 23 23 23
40 34 30 29 26 18 18 16 17 16 24 24 24 22 28 29 30 27 23 18 21 26 15 19 26 32 33 31 30 30 32 32 31 30 30 30 29 29 28 26 26 25 24 25
31 26 22 24 17 21 23 24 22 26 25 26 26 23 25 28 24 26 16 26 24 11 11 18 24 32 33 32 31 31 29 29 28 25 26 27 28 27 27 26 25 24 23 24
30 30 23 24 27 20 21 21 24 24 28 28 25 24 26 22 22 25 21 16 11 16 18 24 27 30 31 30 31 30 28 26 23 22 22 21 22 25 24 25 24 23 23 23
33 31 29 31 24 18 18 16 19 25 28 25 27 21 17 20 20 16 15 12 13 20 24 27 26 29 30 30 31 30 29 28 26 24 23 22 22 22 21 20 22 22 22 21
33 30 33 30 26 22 23 26 27 29 27 22 22 16 21 21 13 15 20 17 22 26 24 24 28 30 30 30 30 30 29 28 26 24 23 21 21 19 19 18 18 19 21 20

GFSNW_sfc_temp_096.txt.gz
Temp
57 57 57 57 57 56 49 40 30 45 46 34 35 29 39 43 42 46 44 43 41 37 37 36 36 34 39 45 44 36 42 36 29 34 42 44 39 37 34 26 28 28 26 29
56 56 56 57 57 54 42 36 35 44 43 29 31 37 38 40 42 43 44 42 44 43 38 34 37 38 45 45 43 37 39 31 21 28 35 39 35 39 39 36 32 25 23 29
56 56 55 56 56 55 44 35 30 36 38 36 32 34 35 38 46 45 46 44 45 42 39 40 36 38 44 45 45 49 45 34 29 22 30 34 33 36 38 33 24 27 26 27
56 56 55 55 55 55 45 37 32 36 28 35 35 36 38 38 38 45 45 42 41 39 35 36 35 39 41 44 47 42 40 30 29 33 36 37 35 34 36 32 31 27 31 31
56 55 55 55 55 55 43 37 36 36 35 37 36 38 38 39 40 40 39 38 41 40 36 36 34 37 36 35 41 38 39 29 30 26 36 36 35 36 36 36 36 35 34 32
55 55 55 55 55 52 41 40 41 40 38 35 34 36 39 40 41 42 43 41 39 37 39 41 41 41 40 39 37 37 36 30 24 24 31 33 28 33 33 34 36 35 31 35
55 54 54 55 55 50 42 39 39 37 34 35 38 41 42 41 41 38 42 41 39 42 45 44 42 40 41 41 41 41 36 32 27 22 27 18 32 37 38 35 37 37 37 37
54 54 54 55 55 53 41 39 39 36 32 35 40 40 40 39 40 39 40 42 44 43 41 37 34 34 35 38 40 39 39 33 26 21 20 30 32 37 36 34 35 38 38 37
54 54 54 54 54 54 42 39 39 38 35 35 39 37 38 35 33 37 40 44 45 43 38 35 27 26 29 30 34 39 40 36 30 25 22 22 33 37 40 39 28 39 40 38
54 54 54 54 54 54 44 40 40 39 34 35 36 36 38 38 35 34 36 40 41 41 34 32 28 25 32 27 27 28 30 30 26 27 23 29 37 39 40 25 31 39 40 39
53 53 54 54 53 53 45 41 41 40 33 34 39 40 36 37 37 35 39 38 39 36 32 31 30 28 30 28 30 29 30 26 25 26 23 21 39 37 33 38 36 39 38 38
53 53 53 53 53 54 50 40 43 43 38 37 40 41 40 39 40 38 36 38 37 37 33 31 30 31 28 28 26 32 29 33 30 31 31 39 39 39 39 39 39 38 38 37
52 53 53 53 53 53 49 39 39 40 35 35 35 37 40 43 41 41 36 36 39 37 37 34 32 30 31 27 27 28 33 35 33 35 34 36 40 38 39 39 38 38 37 38
52 53 53 53 53 53 49 40 38 38 37 30 34 42 37 43 42 41 40 38 39 38 35 33 32 31 35 30 33 31 36 35 33 32 36 37 39 38 39 39 38 37 37 37
52 52 52 52 52 52 43 39 39 39 38 31 33 37 39 40 40 39 39 38 36 34 31 27 30 32 32 31 29 27 35 36 33 36 39 39 38 37 39 37 37 37 37 36
51 51 51 51 51 50 42 37 40 41 39 30 27 35 34 36 37 37 36 36 35 33 32 31 32 34 32 28 26 35 36 38 44 41 38 38 37 37 37 37 36 36 36 36
51 51 51 51 51 41 38 37 40 44 38 32 26 25 34 34 34 34 34 35 33 32 31 30 30 31 30 26 32 38 39 40 39 38 37 33 35 36 37 37 37 39 34 34
51 51 51 51 50 46 38 39 46 42 35 30 21 23 27 33 30 30 32 31 30 31 30 30 29 30 28 26 33 36 38 39 38 36 36 37 36 34 33 34 34 32 32 32
51 51 50 42 38 34 36 47 45 38 35 25 21 18 20 32 30 30 31 30 28 31 28 28 29 28 25 32 34 35 36 36 35 33 33 33 33 32 32 32 31 30 30 30
50 43 38 32 36 46 44 37 33 30 28 27 24 23 24 29 27 27 27 29 26 18 28 29 26 26 33 35 35 35 37 38 33 28 28 29 27 30 30 31 31 30 30 29
40 35 32 37 45 37 32 27 25 28 26 27 24 25 25 30 24 27 30 23 22 14 23 24 21 23 30 34 32 33 32 36 35 35 34 33 32 30 29 29 29 29 28 27
42 39 39 37 33 27 24 19 25 24 25 26 25 27 29 28 30 27 27 22 25 17 24 20 17 25 31 31 31 31 31 34 34 34 32 31 32 31 29 27 26 25 25 25
42 36 30 29 27 20 19 18 17 15 23 24 24 23 27 28 29 26 22 18 20 24 13 18 22 28 31 30 30 29 30 32 32 31 30 30 28 29 28 26 26 26 25 25
34 30 23 24 19 24 26 24 24 26 25 25 24 23 25 27 24 25 16 26 23 14 15 16 21 27 30 29 30 29 27 29 29 27 28 28 28 27 27 27 26 25 24 25
33 29 24 23 29 27 26 22 24 24 30 27 25 24 26 21 21 25 21 17 16 15 18 20 23 28 27 27 28 28 27 24 24 24 23 23 24 25 24 24 24 25 24 24
32 31 27 29 23 25 25 21 20 25 28 25 26 20 17 19 19 16 15 12 13 20 19 24 24 27 27 27 28 28 28 26 25 24 24 23 23 23 22 21 23 23 23 22
32 30 32 29 27 30 28 28 28 29 28 24 22 17 21 22 12 18 19 16 22 23 23 23 27 28 27 27 28 29 28 26 25 24 24 22 21 18 19 20 21 21 22 20

GFSNW_sfc_temp_102.txt.gz
Temp
56 56 56 57 56 55 47 38 34 47 45 35 31 32 33 42 40 43 41 39 37 34 34 31 30 31 36 42 41 37 40 37 30 31 37 37 35 32 31 23 24 26 26 26
56 56 56 56 56 53 41 35 35 45 45 30 28 35 37 39 40 40 41 39 41 39 35 31 33 35 42 42 40 36 37 29 20 28 33 35 32 34 34 32 28 24 21 27
56 55 55 56 56 55 42 37 32 38 37 35 33 32 34 37 43 41 42 39 41 38 34 36 34 35 41 41 41 48 43 31 28 22 30 32 31 32 33 30 20 25 25 27
56 55 55 55 55 55 43 36 32 34 29 34 33 33 35 36 36 41 41 39 38 35 32 33 32 35 38 39 45 39 37 29 26 30 32 32 33 33 33 30 29 26 29 29
55 55 54 55 55 54 41 36 35 34 33 34 34 36 35 36 38 37 37 36 38 36 33 34 31 34 33 33 36 36 36 27 28 24 33 31 31 33 33 33 33 32 31 31
55 54 54 54 54 51 39 37 38 39 35 33 33 34 36 37 37 39 40 38 36 34 38 40 40 40 39 37 33 34 33 28 24 23 29 30 27 30 32 34 34 34 29 35
54 54 54 54 54 48 40 37 37 36 33 33 35 38 40 39 39 37 40 39 36 39 41 40 37 34 36 35 35 36 32 30 26 21 26 16 32 33 35 35 36 36 34 36
54 54 54 54 54 52 40 37 38 35 32 33 36 37 37 37 36 37 40 42 43 40 38 35 33 31 32 32 34 33 35 31 24 19 17 29 31 32 34 32 34 36 36 36
53 53 53 54 54 53 40 37 38 37 34 33 37 36 35 33 31 35 38 41 42 39 35 33 28 27 26 29 31 34 34 32 28 23 19 20 30 33 37 36 27 36 38 36
53 53 53 53 53 53 43 38 39 38 33 34 35 35 35 37 33 32 33 37 37 38 32 31 28 25 28 26 26 28 28 27 25 25 22 27 34 36 38 24 31 35 37 37
53 53 53 53 53 53 44 39 39 39 33 35 37 38 36 35 34 34 37 36 36 33 31 30 28 26 27 24 27 26 28 24 23 23 21 20 36 35 32 37 33 37 36 36
52 52 53 53 53 53 47 38 41 40 36 37 38 40 39 39 39 37 35 35 35 36 31 30 29 29 24 25 25 27 27 32 29 30 30 37 37 38 39 38 38 37 37 38
52 52 53 53 53 53 47 38 37 38 34 35 35 36 37 40 40 41 36 34 37 35 35 32 30 30 30 26 24 24 31 32 31 31 34 35 37 38 37 38 38 37 37 38
53 53 53 52 52 52 48 39 37 37 35 29 34 39 35 38 39 39 39 38 37 36 34 32 30 30 34 28 31 28 34 32 30 29 36 35 39 37 39 38 38 37 36 36
53 52 52 52 52 52 42 38 37 38 37 30 32 35 36 37 38 37 36 37 35 32 30 26 29 30 30 29 27 25 33 35 30 34 41 38 40 38 38 36 37 36 36 33
52 51 51 51 51 50 40 35 38 39 38 30 27 34 31 33 34 34 33 34 33 32 31 29 30 32 31 28 25 33 35 36 40 39 35 37 39 38 37 37 36 36 36 35
52 51 51 51 51 41 37 37 40 42 37 31 25 26 33 34 33 31 31 32 31 31 30 28 28 29 29 28 30 40 36 38 37 36 33 33 34 37 37 36 35 38 34 33
52 51 51 51 50 45 38 39 46 41 34 30 19 23 27 34 29 29 30 29 29 29 29 29 31 31 30 28 36 34 35 35 34 34 34 35 34 33 33 31 31 30 30 29
51 51 51 45 40 34 37 46 44 37 35 26 23 19 22 31 29 29 29 29 26 30 27 28 29 29 26 32 33 33 34 33 34 33 31 32 31 33 30 30 29 29 29 29
50 45 40 35 38 46 45 36 32 30 29 28 25 24 23 28 26 27 26 28 26 17 27 28 28 28 34 36 35 33 33 32 30 24 26 28 27 29 28 29 29 31 30 29
42 37 35 39 45 39 35 29 27 28 26 29 27 27 25 30 25 27 29 23 24 17 23 22 20 22 28 32 32 32 30 29 29 29 31 32 32 28 28 29 30 30 29 27
43 40 41 39 35 31 29 27 25 25 26 27 27 27 29 27 29 28 26 23 23 20 23 21 21 25 31 30 30 30 29 28 30 31 31 32 32 30 30 28 26 24 24 23
41 37 32 32 31 21 21 19 20 24 29 27 27 26 29 27 29 26 23 18 22 24 18 20 23 27 30 30 29 29 29 29 30 30 30 29 27 29 28 26 26 24 23 23
34 31 26 26 20 23 25 26 26 29 29 28 30 27 28 28 25 25 18 25 23 17 18 19 25 29 32 30 29 29 29 29 29 22 23 25 27 28 27 27 25 23 22 23
32 31 27 26 27 21 21 22 24 25 32 29 28 28 30 24 22 24 22 19 18 19 20 24 29 32 30 29 28 27 27 24 23 20 19 18 20 24 24 24 23 23 23 22
32 30 28 26 19 16 19 19 23 29 33 30 29 26 25 25 22 17 18 21 21 25 22 28 28 31 30 29 29 28 28 27 26 22 21 21 20 21 19 19 21 21 22 21
30 30 32 26 20 22 27 28 30 34 31 29 28 21 26 22 16 16 23 23 29 26 25 26 28 33 33 31 29 29 28 27 26 24 23 22 19 15 14 15 16 16 19 18

GFSNW_sfc_temp_105.txt.gz
Temp
56 56 56 57 57 54 46 38 34 46 43 35 30 33 34 42 39 42 40 38 36 34 33 31 30 31 36 42 41 39 41 36 30 31 38 39 37 35 33 27 26 28 27 28
56 56 56 56 56 53 41 36 36 45 45 30 25 33 36 38 39 38 39 38 40 38 34 31 32 34 41 42 40 36 38 32 25 28 34 36 35 36 36 33 30 26 24 31
55 55 55 55 56 55 41 37 32 38 36 34 33 33 33 35 41 40 40 38 40 37 35 35 33 34 40 41 41 47 44 32 29 23 31 34 32 33 35 33 24 27 27 32
55 55 55 55 55 55 43 35 32 33 29 34 32 33 34 34 34 39 40 37 37 34 31 32 31 35 37 39 44 39 38 29 27 30 33 33 33 34 33 30 31 28 31 30
55 55 54 54 54 54 40 36 35 33 31 33 31 35 34 36 36 37 35 37 37 36 34 36 33 35 34 34 36 35 35 28 29 24 33 32 29 32 32 33 33 31 32 32
55 54 54 54 54 50 39 36 37 38 34 32 31 32 34 37 36 39 40 38 35 34 38 40 40 40 39 38 36 34 33 29 25 23 29 29 27 31 31 33 34 35 31 37
54 54 54 54 54 48 39 36 37 36 33 33 34 35 36 36 37 36 39 37 34 39 41 39 36 33 35 34 34 36 31 29 26 22 26 19 34 36 36 35 36 37 37 38
54 54 54 54 54 52 39 36 38 35 32 32 34 35 35 35 34 34 36 39 40 40 38 34 33 31 31 31 32 31 34 31 25 20 18 30 32 34 35 33 35 37 37 37
53 53 53 53 54 53 39 36 37 37 34 33 36 35 34 33 30 33 37 39 41 39 34 32 27 26 26 28 28 32 32 32 28 23 20 22 32 35 39 39 30 38 37 37
53 53 53 53 53 53 42 37 37 37 34 35 36 35 35 35 32 32 32 35 35 37 32 31 27 24 27 25 25 25 27 26 25 25 22 28 35 37 37 27 34 38 38 39
53 53 53 53 53 53 43 39 38 37 33 34 37 39 36 34 34 33 36 35 34 32 31 30 28 26 26 24 26 26 27 24 22 23 21 20 37 36 34 39 36 38 38 38
53 53 53 53 53 53 46 37 40 40 36 37 38 39 38 41 41 37 34 35 34 35 31 29 29 29 24 25 24 26 27 32 29 29 30 38 37 39 39 39 40 40 38 39
53 53 53 53 53 53 47 37 36 37 33 34 34 35 38 39 40 41 36 33 36 34 35 31 30 29 30 26 24 24 31 31 30 32 35 36 37 38 39 38 39 40 40 41
53 53 53 53 52 52 48 38 36 36 34 28 34 38 33 37 38 38 38 38 36 35 33 31 30 30 33 28 31 27 34 32 30 29 35 37 39 36 39 39 38 37 39 39
53 53 53 52 52 52 43 38 37 37 36 29 32 35 34 36 37 37 36 36 34 32 29 27 30 30 29 28 27 26 32 34 30 34 38 38 37 39 39 38 40 39 36 35
52 52 52 51 51 49 43 36 37 38 38 30 28 34 31 32 35 35 33 34 32 31 31 29 29 31 30 27 25 33 34 36 42 40 35 36 37 37 38 38 40 38 36 36
52 52 51 51 51 43 39 39 40 42 38 32 27 28 32 33 32 30 30 31 30 31 30 29 28 29 29 28 29 40 36 37 37 36 32 33 34 35 35 35 35 38 33 34
52 51 51 51 51 47 39 41 46 41 35 31 23 26 27 33 29 28 30 28 28 28 29 30 29 29 30 27 34 37 34 34 33 34 34 35 33 32 32 33 32 31 31 30
51 50 51 45 41 36 37 46 44 38 35 29 25 24 23 31 29 29 29 29 26 29 27 28 29 29 26 31 32 33 35 35 35 33 31 30 30 31 31 30 30 30 29 29
49 45 40 36 38 46 44 37 32 30 31 29 26 29 25 29 27 28 27 27 26 17 28 29 28 29 36 35 35 35 35 34 32 26 28 28 27 30 30 30 30 30 30 29
42 38 36 38 46 39 35 32 30 28 25 29 28 30 28 32 27 28 30 25 25 17 24 24 23 25 27 32 33 37 33 31 30 30 31 31 31 28 30 30 30 30 30 28
44 40 40 38 34 31 29 28 29 26 25 27 26 28 31 30 32 31 27 23 23 21 23 24 21 29 30 31 32 31 30 29 29 30 30 30 31 31 30 28 27 27 25 24
41 37 32 31 31 25 23 19 18 19 26 25 25 23 29 28 31 29 26 21 23 24 20 21 26 28 31 32 31 30 29 29 30 31 31 31 30 30 29 28 28 26 24 23
34 31 26 28 25 24 24 24 24 26 26 27 27 24 26 28 26 27 20 25 22 18 18 21 27 29 34 33 30 29 29 29 30 27 25 26 28 29 29 29 26 25 24 23
32 31 27 26 29 20 19 19 22 25 29 29 27 24 26 23 22 25 21 19 16 18 23 28 28 32 32 32 29 28 28 24 23 21 21 22 23 26 26 26 25 24 24 23
32 31 30 28 21 16 19 17 24 30 32 30 31 26 22 22 21 18 17 15 16 27 28 31 27 31 31 32 32 31 29 28 27 24 23 22 22 24 23 22 23 23 23 22
29 29 32 25 19 25 25 28 30 34 33 28 28 23 23 22 13 14 20 19 29 32 31 29 30 32 32 32 32 32 30 28 27 24 24 21 20 18 18 19 20 19 21 20

GFSNW_sfc_temp_108.txt.gz
Temp
56 56 56 57 57 54 54 52 46 53 52 47 45 40 45 45 47 49 47 47 45 44 43 42 41 42 45 51 50 44 47 43 35 41 47 47 46 44 44 38 33 38 36 37
56 55 56 56 56 54 55 49 48 55 53 42 41 44 44 46 46 46 46 46 48 48 44 41 43 44 50 50 49 46 47 40 33 38 42 44 42 45 45 42 40 35 34 43
55 55 55 55 56 55 55 53 44 53 50 46 48 45 43 43 48 47 47 47 48 46 44 45 44 45 47 49 49 47 48 42 39 37 43 44 40 43 44 42 35 40 39 45
55 55 54 55 55 54 55 50 43 44 43 46 45 46 45 43 43 47 48 45 47 46 43 43 43 46 46 46 48 48 47 37 39 41 43 43 41 41 42 38 40 36 44 42
55 54 54 54 54 54 52 51 49 45 45 44 46 44 44 43 44 45 46 45 45 46 45 47 45 46 46 46 46 45 44 37 38 33 44 42 37 41 41 41 42 42 43 42
55 54 54 54 54 54 52 47 49 52 41 44 46 45 44 44 45 47 47 46 45 44 46 48 51 51 49 47 46 44 42 39 35 33 40 39 36 42 42 42 43 43 38 48
54 54 54 54 54 50 52 48 50 51 45 45 46 44 45 45 45 44 47 47 46 49 51 51 49 47 46 46 46 47 41 38 38 32 37 30 42 47 46 43 46 47 48 49
54 54 54 54 54 52 51 47 49 49 47 46 43 43 45 45 46 45 46 49 52 51 49 46 44 45 42 41 41 42 44 42 36 31 32 41 43 42 42 41 45 49 48 51
54 53 53 53 54 53 51 47 46 49 46 47 48 46 46 45 45 45 45 49 51 49 47 44 37 39 39 39 38 40 40 43 36 34 28 31 43 46 48 47 41 50 48 49
54 53 53 53 53 53 50 47 46 49 46 48 47 46 46 47 44 45 44 46 45 47 45 41 39 38 39 37 36 35 36 34 31 32 29 38 49 48 48 37 44 50 48 50
54 53 53 53 53 53 50 47 46 49 45 47 45 47 45 43 45 45 46 45 43 43 40 41 41 38 41 37 40 39 39 36 33 34 30 28 48 44 42 51 50 50 50 51
54 53 53 53 53 53 49 48 46 47 46 47 45 48 48 48 49 49 45 45 44 48 44 42 43 39 38 40 37 40 36 44 43 42 43 50 49 53 52 50 49 50 50 52
54 54 53 53 53 53 50 46 45 46 43 45 43 44 46 45 46 48 46 44 46 44 46 46 44 39 43 38 37 41 43 44 40 40 50 48 52 53 52 52 50 51 51 49
54 54 54 53 53 52 49 45 44 45 42 38 44 45 43 45 45 46 46 45 44 44 44 43 43 40 45 42 44 41 48 42 43 42 47 49 50 51 52 50 49 48 49 48
54 54 53 53 52 52 48 45 43 44 42 38 40 43 42 42 43 43 44 44 43 43 41 38 36 42 40 42 37 38 44 44 40 41 51 50 52 52 49 48 48 49 47 47
53 52 52 52 52 49 46 42 41 42 43 38 34 40 39 40 41 40 40 42 42 42 41 41 42 40 41 37 36 47 48 51 52 49 54 51 52 49 48 46 46 46 45 46
53 52 51 51 51 47 42 42 45 44 43 37 34 34 37 39 39 38 38 38 39 40 39 35 39 39 39 35 36 51 48 48 49 50 48 44 44 46 46 43 44 44 43 43
53 52 51 51 51 47 44 46 47 45 40 37 31 31 33 38 34 34 37 36 36 36 37 35 34 35 36 31 42 46 47 47 45 46 46 47 44 40 41 42 41 39 40 40
52 51 50 46 43 39 41 47 46 43 40 34 31 30 32 36 34 35 34 36 31 37 32 34 35 34 29 38 42 43 43 42 44 42 42 41 39 39 40 39 39 38 39 38
50 45 41 36 40 46 46 40 36 35 37 35 30 35 31 35 33 33 33 33 32 28 33 34 29 31 39 43 44 45 44 44 42 34 35 37 34 37 39 38 39 39 40 38
43 39 37 39 46 40 37 33 31 33 30 33 32 33 32 36 32 34 35 31 31 25 30 29 29 28 36 42 42 45 45 41 41 41 42 39 38 36 37 38 37 36 37 35
43 40 40 39 35 33 30 29 31 29 29 34 31 31 36 34 37 35 31 30 28 24 30 26 24 33 39 38 38 39 41 40 39 37 37 38 37 36 36 36 34 34 34 32
42 37 32 32 32 27 25 22 25 26 32 31 31 30 35 32 34 34 31 25 25 29 24 24 30 38 38 38 37 36 38 38 38 37 37 37 36 37 35 35 35 36 34 34
34 31 27 29 28 29 31 31 33 35 32 31 34 31 33 34 30 32 25 31 28 21 20 24 35 38 40 41 39 38 37 36 36 32 33 33 34 34 35 34 35 34 33 32
33 31 27 28 35 31 30 30 31 31 34 34 33 31 34 30 29 29 26 22 20 23 27 34 38 38 37 39 37 38 37 35 33 33 30 29 30 32 34 33 32 32 32 30
33 32 30 32 30 28 27 28 30 33 35 34 35 29 26 27 28 23 22 23 22 31 31 37 38 38 37 38 39 39 38 37 36 33 32 31 30 30 32 31 30 30 31 29
31 29 35 36 29 34 33 34 34 37 35 31 30 26 27 25 24 22 27 25 32 35 37 37 37 38 40 39 38 38 37 36 36 34 32 31 30 26 27 27 28 28 28 28

GFSNW_sfc_temp_111.txt.gz
Temp
56 56 56 56 56 56 54 60 50 60 61 52 53 45 49 49 50 52 51 52 50 49 48 47 47 47 50 55 53 48 51 47 39 46 52 53 50 49 49 40 38 42 40 38
55 55 56 56 56 55 59 60 58 62 58 45 46 49 48 51 49 50 50 50 52 52 49 45 48 49 54 54 51 50 51 45 37 41 46 49 44 48 48 49 45 36 35 43
55 55 55 55 55 55 61 60 47 59 60 57 54 50 48 47 51 51 52 51 53 50 48 51 48 48 51 53 52 48 50 46 41 38 44 48 43 46 48 46 36 39 42 46
55 55 55 55 55 55 60 58 50 50 48 52 52 52 51 48 47 51 53 50 50 50 47 48 47 50 51 50 49 50 49 40 43 45 47 46 44 44 46 42 43 37 43 46
55 54 54 54 54 54 60 57 56 55 54 51 52 48 49 49 48 50 49 47 51 51 48 50 47 49 50 50 50 48 50 39 43 35 45 47 42 45 46 45 45 45 46 45
55 54 54 54 54 57 59 57 57 56 47 52 52 54 51 50 50 51 52 51 50 49 52 54 55 56 56 54 51 47 46 41 37 34 45 43 38 46 46 46 48 47 41 50
54 54 54 54 54 53 59 55 57 56 52 51 53 50 51 49 50 50 52 52 50 54 57 56 55 52 52 53 52 53 47 42 40 33 39 30 45 52 50 48 50 52 51 52
54 54 54 54 54 53 57 56 55 55 52 53 51 49 50 51 52 48 50 54 57 57 54 49 47 47 45 46 49 48 50 45 37 33 36 43 47 44 45 43 47 54 52 54
54 54 53 53 53 53 57 53 52 55 51 53 53 51 52 49 51 50 50 53 56 54 51 47 40 41 45 42 39 45 46 46 40 40 30 31 47 50 52 50 40 55 53 52
54 54 53 53 53 53 54 53 51 53 49 56 53 51 51 54 51 49 50 50 48 52 48 43 43 42 45 40 40 35 37 35 32 34 32 39 53 51 52 38 45 54 54 54
55 54 53 53 53 52 53 51 51 50 50 53 51 53 51 49 50 48 50 49 47 46 43 45 46 42 47 41 48 44 42 38 34 37 33 29 53 48 43 53 55 54 54 54
55 54 53 53 53 53 51 52 50 51 47 50 52 55 56 55 55 53 52 51 49 53 47 48 48 43 46 44 40 51 40 49 46 45 44 55 54 56 57 56 53 54 53 55
54 54 54 54 53 53 51 50 49 47 44 47 46 48 54 51 51 56 49 53 54 50 52 50 48 41 49 41 43 46 50 53 44 47 52 54 56 57 57 57 54 55 55 54
54 55 54 54 53 53 51 50 50 49 46 39 47 50 47 50 49 49 52 51 49 50 49 46 45 43 51 44 48 46 51 50 45 46 51 54 56 57 59 59 57 53 53 53
54 54 54 53 53 52 52 50 48 49 44 39 42 48 45 45 46 45 46 47 47 47 43 40 40 48 45 47 46 41 50 48 44 43 55 54 56 57 54 52 51 53 51 49
53 53 53 52 52 51 50 44 47 48 48 39 36 44 41 43 43 43 43 43 45 45 43 42 45 47 44 40 39 51 55 55 56 52 58 56 57 53 56 52 52 52 49 49
53 53 52 52 51 49 46 44 46 46 45 39 35 39 40 42 42 41 40 41 42 40 40 38 41 41 40 39 37 52 57 56 56 57 56 51 52 49 52 52 49 48 47 47
53 53 52 51 51 49 45 51 47 47 42 37 32 35 37 42 38 37 41 38 39 40 40 38 35 39 38 33 43 49 53 52 53 52 53 51 52 47 46 47 46 43 43 44
52 52 50 46 44 41 46 47 47 45 40 34 33 33 35 39 39 40 37 40 32 41 34 35 38 36 29 37 43 46 50 47 46 48 49 49 45 44 45 44 43 40 41 43
50 47 41 36 40 47 46 42 38 35 37 35 32 41 36 39 37 36 37 37 34 29 35 37 31 32 41 44 46 48 49 49 48 35 36 38 38 39 43 41 43 42 42 41
44 40 37 39 46 42 41 35 32 34 31 36 36 39 38 41 36 38 40 35 35 26 33 30 31 31 40 46 47 49 50 50 47 47 46 44 43 39 39 40 40 39 39 38
44 41 41 39 35 33 31 31 34 31 31 39 36 36 39 39 42 38 36 32 31 26 34 28 25 37 42 43 45 45 46 50 46 46 43 41 41 41 39 38 36 36 35 34
43 38 34 33 33 28 28 27 28 29 36 36 34 32 38 36 37 37 34 28 26 34 28 27 34 44 45 46 40 40 42 45 43 42 41 41 41 39 38 37 38 39 37 36
35 32 29 30 30 30 34 35 36 39 37 34 37 35 36 38 33 36 28 35 32 26 23 28 40 45 45 47 44 41 39 40 40 35 35 36 36 37 38 37 38 37 36 36
33 32 29 31 37 37 37 36 35 35 39 36 32 32 33 31 30 30 30 25 24 28 30 38 42 43 41 41 42 43 41 38 36 37 34 32 33 35 37 37 36 36 36 34
34 32 31 35 32 34 32 33 34 37 38 38 36 31 29 29 30 26 25 26 26 34 34 38 43 42 42 42 41 42 44 44 41 37 35 34 33 34 35 35 34 34 34 32
32 31 39 38 38 37 41 40 41 42 35 32 32 27 27 29 26 25 32 28 36 39 38 41 43 42 43 44 42 41 40 41 41 38 36 34 33 32 31 31 32 31 31 31

GFSNW_sfc_temp_114.txt.gz
Temp
56 56 56 56 56 56 51 54 46 57 58 47 48 40 47 49 49 52 51 50 49 47 45 44 43 43 47 52 50 44 46 41 31 39 47 49 43 42 40 28 30 32 30 29
55 55 55 56 56 56 54 53 52 58 55 41 41 47 48 51 49 49 50 49 50 50 46 40 44 45 52 52 48 42 44 37 25 30 39 42 39 43 44 42 38 29 23 30
55 55 55 55 56 56 52 54 41 53 54 53 49 46 46 46 50 51 52 51 51 47 45 47 43 45 48 51 49 49 47 40 34 27 33 39 35 41 43 40 27 31 34 37
55 55 55 55 55 55 53 53 45 47 43 47 48 48 48 47 45 50 51 48 49 47 42 44 43 46 46 48 49 45 43 33 35 39 42 41 39 40 41 37 38 32 37 38
55 55 54 54 54 55 55 49 48 49 48 49 49 44 46 47 48 48 47 45 49 47 43 45 42 45 45 44 44 41 44 31 35 29 40 40 36 40 41 41 41 41 42 40
55 54 54 54 54 56 54 53 54 50 46 48 45 46 48 48 49 49 51 49 46 46 47 49 49 49 49 47 44 41 40 33 30 26 36 36 30 39 41 42 42 41 36 44
55 54 54 54 54 53 54 50 50 48 43 46 48 49 49 48 48 45 50 48 46 47 53 52 49 46 47 47 46 47 39 36 33 28 30 19 38 44 45 42 45 46 46 47
55 54 54 54 54 54 52 51 48 47 41 47 49 48 47 48 48 45 47 50 50 51 47 41 39 39 38 42 45 43 44 38 31 23 24 35 40 41 39 37 39 47 45 46
54 54 54 54 54 54 53 48 49 48 42 44 50 47 47 42 43 45 46 49 50 46 43 40 30 31 35 31 33 40 41 41 35 29 23 23 37 43 47 44 30 47 48 46
54 54 54 53 53 53 50 47 48 46 41 48 47 44 44 47 43 42 44 45 42 45 39 34 32 31 37 31 30 27 30 35 30 31 28 32 44 45 46 27 35 46 47 46
55 54 54 53 53 53 49 46 48 44 42 45 49 50 45 44 43 40 43 42 41 39 34 35 35 33 37 32 38 34 31 27 27 30 26 23 45 42 37 43 43 47 47 47
55 54 54 53 53 53 52 46 48 48 41 43 49 50 49 48 45 44 46 44 44 44 37 38 37 35 36 35 30 40 33 40 35 36 34 46 47 46 49 48 46 45 44 46
54 54 54 54 53 53 50 46 45 44 40 42 41 43 49 50 48 50 42 45 47 45 42 39 38 34 38 32 35 39 42 46 38 40 43 48 51 50 49 49 48 48 47 46
55 55 55 54 53 53 51 45 46 43 41 33 40 48 43 46 47 46 47 45 46 45 42 38 37 35 43 37 40 40 42 42 40 41 46 49 51 53 53 52 50 48 47 47
54 54 54 54 53 52 50 48 48 46 40 34 36 44 41 43 43 42 43 43 41 39 35 34 33 38 40 41 41 39 45 45 41 40 47 47 46 46 47 46 46 47 46 44
53 53 53 53 52 51 47 40 43 45 44 35 33 39 36 38 39 40 40 40 40 38 37 35 38 40 37 31 30 42 46 49 51 49 51 48 47 45 46 46 46 46 45 44
53 53 53 52 51 48 44 42 43 47 44 37 32 33 36 37 36 36 36 37 36 35 37 36 34 36 35 31 32 47 48 49 50 51 47 45 45 43 45 44 44 45 41 42
53 53 53 52 51 48 44 47 47 46 40 36 31 31 32 37 33 32 37 36 37 35 34 35 33 34 34 30 40 45 46 47 48 51 47 47 44 42 40 41 41 38 37 38
52 51 50 47 44 40 42 48 48 43 39 33 32 30 30 34 33 33 32 38 31 36 32 32 33 30 28 34 38 41 43 42 42 40 42 43 42 40 39 39 38 36 35 36
50 47 42 37 40 47 46 40 36 34 35 33 30 33 28 33 31 30 30 34 31 28 32 32 30 30 38 42 43 44 44 43 42 32 32 33 33 35 37 36 37 37 37 36
44 40 38 40 45 40 37 33 32 32 30 33 31 31 33 36 32 33 35 31 30 25 29 28 28 27 35 41 40 41 42 43 45 41 39 39 37 35 35 35 36 35 35 34
43 41 42 40 36 33 31 30 32 30 30 32 33 32 32 34 35 32 32 27 29 24 29 26 23 29 36 38 39 38 38 38 39 41 39 38 38 37 35 33 31 32 30 30
43 39 33 33 33 27 27 25 26 28 30 30 29 26 32 30 31 31 30 25 26 27 24 22 25 33 40 39 37 36 35 37 37 36 37 37 36 36 34 33 33 34 33 33
36 32 29 28 28 29 29 28 28 31 31 30 30 28 30 33 30 31 27 30 28 19 19 20 28 37 39 39 37 36 36 35 35 31 30 32 34 33 34 34 34 33 32 32
33 32 26 28 31 30 29 30 29 28 33 33 29 29 28 26 28 29 29 25 22 22 21 29 35 38 38 40 39 38 37 37 33 31 30 31 30 31 33 33 33 33 32 32
33 32 30 33 31 30 27 26 27 30 32 30 29 31 28 28 27 26 19 21 19 24 28 33 37 36 39 39 39 40 39 39 38 34 34 32 30 31 32 32 33 31 32 31
32 30 33 32 28 28 29 31 31 36 30 25 30 26 24 28 23 21 26 23 27 32 38 31 33 35 42 45 39 39 38 39 39 38 36 33 29 28 27 30 31 30 31 31